<?xml version="1.0" encoding="UTF-8" standalone="no" ?>
<gpx xmlns="http://www.topografix.com/GPX/1/1" xmlns:xsi="http://www.w3.org/2001/XMLSchema-instance" xsi:schemaLocation="http://www.topografix.com/GPX/1/1 http://www.topografix.com/GPX/1/1/gpx.xsd" version="1.1" creator="VisuGPX - https://www.visugpx.com">
  <metadata>
    <name>273_Circuit 59 km Les Herbiers_Les Herbiers édité par cth85.com</name>
    <desc><![CDATA[Circuit de 82 km passant par:
Les Herbiers
D11 Les Epesses
D752 Saint Malo du Bois
D752 Saint Laurent
D752 Le Puy Saint Bonnet
D157 La Tessoualle
D157 Maulévrier
D41 Saint Pierre des Echaubrognes
D41 Mauléon
D744 La Petite Boissière
D154 Saint Amand sur Sèvre
D64 Châteaumur
Saint Mars la Réorthe par nozillac
D79 Saint Paul en Pareds via la bonnelière
D23 Les Herbiers
]]></desc>
  </metadata>
  <trk>
    <name><![CDATA[59_273-cth85.com]]></name>
    <extensions>
      <line xmlns="http://www.topografix.com/GPX/gpx_style/0/2">
        <color>0000FF</color>
        <width>4</width>
      </line>
    </extensions>
    <trkseg>
      <trkpt lat="46.86378" lon="-1.00568">
        <ele>120</ele>
        <time>2023-11-29T20:51:37Z</time>
      </trkpt>
      <trkpt lat="46.86324" lon="-1.00626">
        <ele>119</ele>
        <time>2023-11-29T20:51:49Z</time>
      </trkpt>
      <trkpt lat="46.86271" lon="-1.00663">
        <ele>118</ele>
        <time>2023-11-29T20:51:59Z</time>
      </trkpt>
      <trkpt lat="46.86235" lon="-1.00681">
        <ele>117</ele>
        <time>2023-11-29T20:52:06Z</time>
      </trkpt>
      <trkpt lat="46.86209" lon="-1.00578">
        <ele>116</ele>
        <time>2023-11-29T20:52:19Z</time>
      </trkpt>
      <trkpt lat="46.86191" lon="-1.00521">
        <ele>115</ele>
        <time>2023-11-29T20:52:27Z</time>
      </trkpt>
      <trkpt lat="46.86172" lon="-1.0049">
        <ele>115</ele>
        <time>2023-11-29T20:52:32Z</time>
      </trkpt>
      <trkpt lat="46.8614" lon="-1.00466">
        <ele>116</ele>
        <time>2023-11-29T20:52:39Z</time>
      </trkpt>
      <trkpt lat="46.8604" lon="-1.0041">
        <ele>115</ele>
        <time>2023-11-29T20:52:58Z</time>
      </trkpt>
      <trkpt lat="46.86171" lon="-0.99914">
        <ele>118</ele>
        <time>2023-11-29T20:54:02Z</time>
      </trkpt>
      <trkpt lat="46.86212" lon="-0.99771">
        <ele>120</ele>
        <time>2023-11-29T20:54:21Z</time>
      </trkpt>
      <trkpt lat="46.86221" lon="-0.99734">
        <ele>120</ele>
        <time>2023-11-29T20:54:26Z</time>
      </trkpt>
      <trkpt lat="46.86312" lon="-0.99257">
        <ele>125</ele>
        <time>2023-11-29T20:55:26Z</time>
      </trkpt>
      <trkpt lat="46.86335" lon="-0.99141">
        <ele>128</ele>
        <time>2023-11-29T20:55:41Z</time>
      </trkpt>
      <trkpt lat="46.86345" lon="-0.99102">
        <ele>129</ele>
        <time>2023-11-29T20:55:46Z</time>
      </trkpt>
      <trkpt lat="46.86362" lon="-0.9905">
        <ele>131</ele>
        <time>2023-11-29T20:55:53Z</time>
      </trkpt>
      <trkpt lat="46.86373" lon="-0.99021">
        <ele>132</ele>
        <time>2023-11-29T20:55:57Z</time>
      </trkpt>
      <trkpt lat="46.86399" lon="-0.98966">
        <ele>134</ele>
        <time>2023-11-29T20:56:05Z</time>
      </trkpt>
      <trkpt lat="46.86448" lon="-0.98872">
        <ele>139</ele>
        <time>2023-11-29T20:56:20Z</time>
      </trkpt>
      <trkpt lat="46.86514" lon="-0.98737">
        <ele>145</ele>
        <time>2023-11-29T20:56:40Z</time>
      </trkpt>
      <trkpt lat="46.86527" lon="-0.98706">
        <ele>145</ele>
        <time>2023-11-29T20:56:44Z</time>
      </trkpt>
      <trkpt lat="46.86563" lon="-0.98597">
        <ele>148</ele>
        <time>2023-11-29T20:56:59Z</time>
      </trkpt>
      <trkpt lat="46.86601" lon="-0.98456">
        <ele>149</ele>
        <time>2023-11-29T20:57:17Z</time>
      </trkpt>
      <trkpt lat="46.86608" lon="-0.98423">
        <ele>149</ele>
        <time>2023-11-29T20:57:22Z</time>
      </trkpt>
      <trkpt lat="46.86614" lon="-0.98397">
        <ele>148</ele>
        <time>2023-11-29T20:57:25Z</time>
      </trkpt>
      <trkpt lat="46.86619" lon="-0.98385">
        <ele>147</ele>
        <time>2023-11-29T20:57:27Z</time>
      </trkpt>
      <trkpt lat="46.86629" lon="-0.9837">
        <ele>146</ele>
        <time>2023-11-29T20:57:29Z</time>
      </trkpt>
      <trkpt lat="46.86629" lon="-0.98233">
        <ele>147</ele>
        <time>2023-11-29T20:57:46Z</time>
      </trkpt>
      <trkpt lat="46.86624" lon="-0.98135">
        <ele>150</ele>
        <time>2023-11-29T20:57:58Z</time>
      </trkpt>
      <trkpt lat="46.86637" lon="-0.98132">
        <ele>148</ele>
        <time>2023-11-29T20:58:00Z</time>
      </trkpt>
      <trkpt lat="46.8665" lon="-0.98123">
        <ele>147</ele>
        <time>2023-11-29T20:58:03Z</time>
      </trkpt>
      <trkpt lat="46.86692" lon="-0.98032">
        <ele>144</ele>
        <time>2023-11-29T20:58:16Z</time>
      </trkpt>
      <trkpt lat="46.86837" lon="-0.97683">
        <ele>138</ele>
        <time>2023-11-29T20:59:06Z</time>
      </trkpt>
      <trkpt lat="46.8694" lon="-0.97431">
        <ele>139</ele>
        <time>2023-11-29T20:59:41Z</time>
      </trkpt>
      <trkpt lat="46.86945" lon="-0.97416">
        <ele>139</ele>
        <time>2023-11-29T20:59:43Z</time>
      </trkpt>
      <trkpt lat="46.86953" lon="-0.97379">
        <ele>140</ele>
        <time>2023-11-29T20:59:48Z</time>
      </trkpt>
      <trkpt lat="46.86954" lon="-0.9736">
        <ele>141</ele>
        <time>2023-11-29T20:59:50Z</time>
      </trkpt>
      <trkpt lat="46.86951" lon="-0.97352">
        <ele>141</ele>
        <time>2023-11-29T20:59:52Z</time>
      </trkpt>
      <trkpt lat="46.8695" lon="-0.97339">
        <ele>142</ele>
        <time>2023-11-29T20:59:53Z</time>
      </trkpt>
      <trkpt lat="46.86954" lon="-0.97327">
        <ele>142</ele>
        <time>2023-11-29T20:59:55Z</time>
      </trkpt>
      <trkpt lat="46.86958" lon="-0.97321">
        <ele>142</ele>
        <time>2023-11-29T20:59:56Z</time>
      </trkpt>
      <trkpt lat="46.86964" lon="-0.97316">
        <ele>142</ele>
        <time>2023-11-29T20:59:57Z</time>
      </trkpt>
      <trkpt lat="46.86971" lon="-0.97303">
        <ele>142</ele>
        <time>2023-11-29T20:59:59Z</time>
      </trkpt>
      <trkpt lat="46.86978" lon="-0.97274">
        <ele>142</ele>
        <time>2023-11-29T21:00:03Z</time>
      </trkpt>
      <trkpt lat="46.86982" lon="-0.9725">
        <ele>142</ele>
        <time>2023-11-29T21:00:06Z</time>
      </trkpt>
      <trkpt lat="46.86985" lon="-0.97194">
        <ele>143</ele>
        <time>2023-11-29T21:00:13Z</time>
      </trkpt>
      <trkpt lat="46.87001" lon="-0.96834">
        <ele>144</ele>
        <time>2023-11-29T21:00:57Z</time>
      </trkpt>
      <trkpt lat="46.87009" lon="-0.96763">
        <ele>143</ele>
        <time>2023-11-29T21:01:05Z</time>
      </trkpt>
      <trkpt lat="46.87018" lon="-0.96705">
        <ele>143</ele>
        <time>2023-11-29T21:01:13Z</time>
      </trkpt>
      <trkpt lat="46.87037" lon="-0.96619">
        <ele>143</ele>
        <time>2023-11-29T21:01:24Z</time>
      </trkpt>
      <trkpt lat="46.87048" lon="-0.96579">
        <ele>143</ele>
        <time>2023-11-29T21:01:29Z</time>
      </trkpt>
      <trkpt lat="46.87062" lon="-0.96534">
        <ele>142</ele>
        <time>2023-11-29T21:01:35Z</time>
      </trkpt>
      <trkpt lat="46.87246" lon="-0.96059">
        <ele>147</ele>
        <time>2023-11-29T21:02:41Z</time>
      </trkpt>
      <trkpt lat="46.87266" lon="-0.95997">
        <ele>149</ele>
        <time>2023-11-29T21:02:50Z</time>
      </trkpt>
      <trkpt lat="46.87274" lon="-0.95957">
        <ele>149</ele>
        <time>2023-11-29T21:02:55Z</time>
      </trkpt>
      <trkpt lat="46.87283" lon="-0.95879">
        <ele>149</ele>
        <time>2023-11-29T21:03:04Z</time>
      </trkpt>
      <trkpt lat="46.87302" lon="-0.95656">
        <ele>149</ele>
        <time>2023-11-29T21:03:32Z</time>
      </trkpt>
      <trkpt lat="46.87311" lon="-0.95551">
        <ele>151</ele>
        <time>2023-11-29T21:03:44Z</time>
      </trkpt>
      <trkpt lat="46.87312" lon="-0.95518">
        <ele>152</ele>
        <time>2023-11-29T21:03:48Z</time>
      </trkpt>
      <trkpt lat="46.87308" lon="-0.9545">
        <ele>153</ele>
        <time>2023-11-29T21:03:57Z</time>
      </trkpt>
      <trkpt lat="46.87302" lon="-0.9541">
        <ele>153</ele>
        <time>2023-11-29T21:04:02Z</time>
      </trkpt>
      <trkpt lat="46.87283" lon="-0.95333">
        <ele>149</ele>
        <time>2023-11-29T21:04:12Z</time>
      </trkpt>
      <trkpt lat="46.87229" lon="-0.95185">
        <ele>145</ele>
        <time>2023-11-29T21:04:32Z</time>
      </trkpt>
      <trkpt lat="46.87213" lon="-0.95127">
        <ele>143</ele>
        <time>2023-11-29T21:04:40Z</time>
      </trkpt>
      <trkpt lat="46.87206" lon="-0.95091">
        <ele>142</ele>
        <time>2023-11-29T21:04:44Z</time>
      </trkpt>
      <trkpt lat="46.872" lon="-0.95052">
        <ele>140</ele>
        <time>2023-11-29T21:04:49Z</time>
      </trkpt>
      <trkpt lat="46.87197" lon="-0.95003">
        <ele>139</ele>
        <time>2023-11-29T21:04:55Z</time>
      </trkpt>
      <trkpt lat="46.87196" lon="-0.94969">
        <ele>137</ele>
        <time>2023-11-29T21:04:59Z</time>
      </trkpt>
      <trkpt lat="46.87198" lon="-0.94913">
        <ele>134</ele>
        <time>2023-11-29T21:05:06Z</time>
      </trkpt>
      <trkpt lat="46.87202" lon="-0.94879">
        <ele>133</ele>
        <time>2023-11-29T21:05:10Z</time>
      </trkpt>
      <trkpt lat="46.87254" lon="-0.94604">
        <ele>122</ele>
        <time>2023-11-29T21:05:45Z</time>
      </trkpt>
      <trkpt lat="46.87262" lon="-0.94569">
        <ele>123</ele>
        <time>2023-11-29T21:05:49Z</time>
      </trkpt>
      <trkpt lat="46.87415" lon="-0.93784">
        <ele>149</ele>
        <time>2023-11-29T21:07:29Z</time>
      </trkpt>
      <trkpt lat="46.87426" lon="-0.93717">
        <ele>151</ele>
        <time>2023-11-29T21:07:37Z</time>
      </trkpt>
      <trkpt lat="46.8743" lon="-0.93681">
        <ele>151</ele>
        <time>2023-11-29T21:07:42Z</time>
      </trkpt>
      <trkpt lat="46.87443" lon="-0.93435">
        <ele>156</ele>
        <time>2023-11-29T21:08:12Z</time>
      </trkpt>
      <trkpt lat="46.87451" lon="-0.93323">
        <ele>159</ele>
        <time>2023-11-29T21:08:25Z</time>
      </trkpt>
      <trkpt lat="46.8746" lon="-0.93278">
        <ele>160</ele>
        <time>2023-11-29T21:08:31Z</time>
      </trkpt>
      <trkpt lat="46.8747" lon="-0.93251">
        <ele>161</ele>
        <time>2023-11-29T21:08:35Z</time>
      </trkpt>
      <trkpt lat="46.87487" lon="-0.93218">
        <ele>162</ele>
        <time>2023-11-29T21:08:40Z</time>
      </trkpt>
      <trkpt lat="46.87498" lon="-0.93201">
        <ele>163</ele>
        <time>2023-11-29T21:08:43Z</time>
      </trkpt>
      <trkpt lat="46.87531" lon="-0.93159">
        <ele>168</ele>
        <time>2023-11-29T21:08:50Z</time>
      </trkpt>
      <trkpt lat="46.87543" lon="-0.93135">
        <ele>170</ele>
        <time>2023-11-29T21:08:54Z</time>
      </trkpt>
      <trkpt lat="46.87556" lon="-0.931">
        <ele>172</ele>
        <time>2023-11-29T21:08:59Z</time>
      </trkpt>
      <trkpt lat="46.87589" lon="-0.92964">
        <ele>181</ele>
        <time>2023-11-29T21:09:16Z</time>
      </trkpt>
      <trkpt lat="46.87604" lon="-0.92876">
        <ele>186</ele>
        <time>2023-11-29T21:09:27Z</time>
      </trkpt>
      <trkpt lat="46.87621" lon="-0.92754">
        <ele>191</ele>
        <time>2023-11-29T21:09:43Z</time>
      </trkpt>
      <trkpt lat="46.87625" lon="-0.92684">
        <ele>189</ele>
        <time>2023-11-29T21:09:51Z</time>
      </trkpt>
      <trkpt lat="46.8762" lon="-0.92678">
        <ele>188</ele>
        <time>2023-11-29T21:09:52Z</time>
      </trkpt>
      <trkpt lat="46.87617" lon="-0.92669">
        <ele>187</ele>
        <time>2023-11-29T21:09:53Z</time>
      </trkpt>
      <trkpt lat="46.87616" lon="-0.9266">
        <ele>187</ele>
        <time>2023-11-29T21:09:55Z</time>
      </trkpt>
      <trkpt lat="46.87617" lon="-0.92651">
        <ele>187</ele>
        <time>2023-11-29T21:09:56Z</time>
      </trkpt>
      <trkpt lat="46.87619" lon="-0.92643">
        <ele>187</ele>
        <time>2023-11-29T21:09:57Z</time>
      </trkpt>
      <trkpt lat="46.87624" lon="-0.92636">
        <ele>187</ele>
        <time>2023-11-29T21:09:58Z</time>
      </trkpt>
      <trkpt lat="46.8764" lon="-0.92621">
        <ele>188</ele>
        <time>2023-11-29T21:10:01Z</time>
      </trkpt>
      <trkpt lat="46.87654" lon="-0.92581">
        <ele>189</ele>
        <time>2023-11-29T21:10:07Z</time>
      </trkpt>
      <trkpt lat="46.8766" lon="-0.92556">
        <ele>189</ele>
        <time>2023-11-29T21:10:10Z</time>
      </trkpt>
      <trkpt lat="46.87677" lon="-0.92516">
        <ele>189</ele>
        <time>2023-11-29T21:10:16Z</time>
      </trkpt>
      <trkpt lat="46.87714" lon="-0.92435">
        <ele>191</ele>
        <time>2023-11-29T21:10:28Z</time>
      </trkpt>
      <trkpt lat="46.87731" lon="-0.92393">
        <ele>191</ele>
        <time>2023-11-29T21:10:34Z</time>
      </trkpt>
      <trkpt lat="46.87758" lon="-0.92301">
        <ele>193</ele>
        <time>2023-11-29T21:10:46Z</time>
      </trkpt>
      <trkpt lat="46.87772" lon="-0.92218">
        <ele>193</ele>
        <time>2023-11-29T21:10:56Z</time>
      </trkpt>
      <trkpt lat="46.87795" lon="-0.92108">
        <ele>192</ele>
        <time>2023-11-29T21:11:10Z</time>
      </trkpt>
      <trkpt lat="46.87822" lon="-0.92021">
        <ele>193</ele>
        <time>2023-11-29T21:11:22Z</time>
      </trkpt>
      <trkpt lat="46.87893" lon="-0.91817">
        <ele>197</ele>
        <time>2023-11-29T21:11:50Z</time>
      </trkpt>
      <trkpt lat="46.87947" lon="-0.91682">
        <ele>201</ele>
        <time>2023-11-29T21:12:09Z</time>
      </trkpt>
      <trkpt lat="46.87986" lon="-0.91592">
        <ele>201</ele>
        <time>2023-11-29T21:12:22Z</time>
      </trkpt>
      <trkpt lat="46.88027" lon="-0.91502">
        <ele>203</ele>
        <time>2023-11-29T21:12:35Z</time>
      </trkpt>
      <trkpt lat="46.88045" lon="-0.91463">
        <ele>204</ele>
        <time>2023-11-29T21:12:40Z</time>
      </trkpt>
      <trkpt lat="46.88078" lon="-0.91414">
        <ele>205</ele>
        <time>2023-11-29T21:12:49Z</time>
      </trkpt>
      <trkpt lat="46.8814" lon="-0.91336">
        <ele>205</ele>
        <time>2023-11-29T21:13:03Z</time>
      </trkpt>
      <trkpt lat="46.88193" lon="-0.91278">
        <ele>208</ele>
        <time>2023-11-29T21:13:15Z</time>
      </trkpt>
      <trkpt lat="46.88241" lon="-0.91204">
        <ele>209</ele>
        <time>2023-11-29T21:13:27Z</time>
      </trkpt>
      <trkpt lat="46.88278" lon="-0.91143">
        <ele>208</ele>
        <time>2023-11-29T21:13:37Z</time>
      </trkpt>
      <trkpt lat="46.88302" lon="-0.91111">
        <ele>207</ele>
        <time>2023-11-29T21:13:43Z</time>
      </trkpt>
      <trkpt lat="46.88307" lon="-0.91078">
        <ele>206</ele>
        <time>2023-11-29T21:13:47Z</time>
      </trkpt>
      <trkpt lat="46.88307" lon="-0.91064">
        <ele>205</ele>
        <time>2023-11-29T21:13:49Z</time>
      </trkpt>
      <trkpt lat="46.88301" lon="-0.91052">
        <ele>205</ele>
        <time>2023-11-29T21:13:51Z</time>
      </trkpt>
      <trkpt lat="46.883" lon="-0.91044">
        <ele>205</ele>
        <time>2023-11-29T21:13:52Z</time>
      </trkpt>
      <trkpt lat="46.883" lon="-0.91029">
        <ele>204</ele>
        <time>2023-11-29T21:13:54Z</time>
      </trkpt>
      <trkpt lat="46.88303" lon="-0.91021">
        <ele>204</ele>
        <time>2023-11-29T21:13:55Z</time>
      </trkpt>
      <trkpt lat="46.88308" lon="-0.91013">
        <ele>204</ele>
        <time>2023-11-29T21:13:56Z</time>
      </trkpt>
      <trkpt lat="46.88315" lon="-0.91008">
        <ele>204</ele>
        <time>2023-11-29T21:13:57Z</time>
      </trkpt>
      <trkpt lat="46.8832" lon="-0.91006">
        <ele>205</ele>
        <time>2023-11-29T21:13:58Z</time>
      </trkpt>
      <trkpt lat="46.88327" lon="-0.90994">
        <ele>205</ele>
        <time>2023-11-29T21:14:00Z</time>
      </trkpt>
      <trkpt lat="46.88341" lon="-0.90953">
        <ele>206</ele>
        <time>2023-11-29T21:14:06Z</time>
      </trkpt>
      <trkpt lat="46.88363" lon="-0.90858">
        <ele>208</ele>
        <time>2023-11-29T21:14:18Z</time>
      </trkpt>
      <trkpt lat="46.88367" lon="-0.90812">
        <ele>208</ele>
        <time>2023-11-29T21:14:24Z</time>
      </trkpt>
      <trkpt lat="46.88365" lon="-0.90783">
        <ele>208</ele>
        <time>2023-11-29T21:14:27Z</time>
      </trkpt>
      <trkpt lat="46.88359" lon="-0.90744">
        <ele>207</ele>
        <time>2023-11-29T21:14:32Z</time>
      </trkpt>
      <trkpt lat="46.88348" lon="-0.90698">
        <ele>206</ele>
        <time>2023-11-29T21:14:38Z</time>
      </trkpt>
      <trkpt lat="46.8835" lon="-0.90695">
        <ele>206</ele>
        <time>2023-11-29T21:14:39Z</time>
      </trkpt>
      <trkpt lat="46.88354" lon="-0.90685">
        <ele>207</ele>
        <time>2023-11-29T21:14:40Z</time>
      </trkpt>
      <trkpt lat="46.88358" lon="-0.90624">
        <ele>207</ele>
        <time>2023-11-29T21:14:47Z</time>
      </trkpt>
      <trkpt lat="46.88362" lon="-0.90599">
        <ele>208</ele>
        <time>2023-11-29T21:14:51Z</time>
      </trkpt>
      <trkpt lat="46.88385" lon="-0.90505">
        <ele>211</ele>
        <time>2023-11-29T21:15:03Z</time>
      </trkpt>
      <trkpt lat="46.88396" lon="-0.90434">
        <ele>211</ele>
        <time>2023-11-29T21:15:12Z</time>
      </trkpt>
      <trkpt lat="46.88438" lon="-0.90267">
        <ele>209</ele>
        <time>2023-11-29T21:15:33Z</time>
      </trkpt>
      <trkpt lat="46.88453" lon="-0.90217">
        <ele>209</ele>
        <time>2023-11-29T21:15:40Z</time>
      </trkpt>
      <trkpt lat="46.88469" lon="-0.90176">
        <ele>208</ele>
        <time>2023-11-29T21:15:46Z</time>
      </trkpt>
      <trkpt lat="46.88474" lon="-0.90169">
        <ele>208</ele>
        <time>2023-11-29T21:15:47Z</time>
      </trkpt>
      <trkpt lat="46.88488" lon="-0.9016">
        <ele>208</ele>
        <time>2023-11-29T21:15:49Z</time>
      </trkpt>
      <trkpt lat="46.88496" lon="-0.90158">
        <ele>209</ele>
        <time>2023-11-29T21:15:51Z</time>
      </trkpt>
      <trkpt lat="46.8854" lon="-0.90159">
        <ele>207</ele>
        <time>2023-11-29T21:15:59Z</time>
      </trkpt>
      <trkpt lat="46.88558" lon="-0.90154">
        <ele>206</ele>
        <time>2023-11-29T21:16:02Z</time>
      </trkpt>
      <trkpt lat="46.88588" lon="-0.90132">
        <ele>205</ele>
        <time>2023-11-29T21:16:08Z</time>
      </trkpt>
      <trkpt lat="46.886" lon="-0.90142">
        <ele>204</ele>
        <time>2023-11-29T21:16:10Z</time>
      </trkpt>
      <trkpt lat="46.88617" lon="-0.90152">
        <ele>204</ele>
        <time>2023-11-29T21:16:14Z</time>
      </trkpt>
      <trkpt lat="46.8869" lon="-0.90172">
        <ele>199</ele>
        <time>2023-11-29T21:16:27Z</time>
      </trkpt>
      <trkpt lat="46.88713" lon="-0.90181">
        <ele>198</ele>
        <time>2023-11-29T21:16:31Z</time>
      </trkpt>
      <trkpt lat="46.88805" lon="-0.90207">
        <ele>194</ele>
        <time>2023-11-29T21:16:48Z</time>
      </trkpt>
      <trkpt lat="46.88862" lon="-0.90221">
        <ele>191</ele>
        <time>2023-11-29T21:16:58Z</time>
      </trkpt>
      <trkpt lat="46.88907" lon="-0.90229">
        <ele>189</ele>
        <time>2023-11-29T21:17:06Z</time>
      </trkpt>
      <trkpt lat="46.88956" lon="-0.90231">
        <ele>187</ele>
        <time>2023-11-29T21:17:15Z</time>
      </trkpt>
      <trkpt lat="46.89016" lon="-0.90225">
        <ele>185</ele>
        <time>2023-11-29T21:17:26Z</time>
      </trkpt>
      <trkpt lat="46.89068" lon="-0.90211">
        <ele>187</ele>
        <time>2023-11-29T21:17:35Z</time>
      </trkpt>
      <trkpt lat="46.89102" lon="-0.90196">
        <ele>186</ele>
        <time>2023-11-29T21:17:41Z</time>
      </trkpt>
      <trkpt lat="46.89253" lon="-0.90116">
        <ele>184</ele>
        <time>2023-11-29T21:18:10Z</time>
      </trkpt>
      <trkpt lat="46.89779" lon="-0.89849">
        <ele>189</ele>
        <time>2023-11-29T21:19:49Z</time>
      </trkpt>
      <trkpt lat="46.89809" lon="-0.89836">
        <ele>190</ele>
        <time>2023-11-29T21:19:55Z</time>
      </trkpt>
      <trkpt lat="46.89844" lon="-0.89826">
        <ele>192</ele>
        <time>2023-11-29T21:20:01Z</time>
      </trkpt>
      <trkpt lat="46.89877" lon="-0.89823">
        <ele>193</ele>
        <time>2023-11-29T21:20:07Z</time>
      </trkpt>
      <trkpt lat="46.89916" lon="-0.89826">
        <ele>195</ele>
        <time>2023-11-29T21:20:14Z</time>
      </trkpt>
      <trkpt lat="46.90136" lon="-0.89892">
        <ele>194</ele>
        <time>2023-11-29T21:20:54Z</time>
      </trkpt>
      <trkpt lat="46.90175" lon="-0.89898">
        <ele>194</ele>
        <time>2023-11-29T21:21:01Z</time>
      </trkpt>
      <trkpt lat="46.90194" lon="-0.89899">
        <ele>195</ele>
        <time>2023-11-29T21:21:04Z</time>
      </trkpt>
      <trkpt lat="46.90223" lon="-0.89896">
        <ele>196</ele>
        <time>2023-11-29T21:21:09Z</time>
      </trkpt>
      <trkpt lat="46.90255" lon="-0.8989">
        <ele>197</ele>
        <time>2023-11-29T21:21:15Z</time>
      </trkpt>
      <trkpt lat="46.90352" lon="-0.89865">
        <ele>194</ele>
        <time>2023-11-29T21:21:32Z</time>
      </trkpt>
      <trkpt lat="46.9039" lon="-0.89863">
        <ele>192</ele>
        <time>2023-11-29T21:21:39Z</time>
      </trkpt>
      <trkpt lat="46.90538" lon="-0.89871">
        <ele>184</ele>
        <time>2023-11-29T21:22:06Z</time>
      </trkpt>
      <trkpt lat="46.90647" lon="-0.89873">
        <ele>184</ele>
        <time>2023-11-29T21:22:25Z</time>
      </trkpt>
      <trkpt lat="46.90742" lon="-0.89864">
        <ele>184</ele>
        <time>2023-11-29T21:22:42Z</time>
      </trkpt>
      <trkpt lat="46.90763" lon="-0.89861">
        <ele>183</ele>
        <time>2023-11-29T21:22:46Z</time>
      </trkpt>
      <trkpt lat="46.90782" lon="-0.89855">
        <ele>182</ele>
        <time>2023-11-29T21:22:49Z</time>
      </trkpt>
      <trkpt lat="46.90814" lon="-0.89838">
        <ele>180</ele>
        <time>2023-11-29T21:22:55Z</time>
      </trkpt>
      <trkpt lat="46.91228" lon="-0.89539">
        <ele>159</ele>
        <time>2023-11-29T21:24:17Z</time>
      </trkpt>
      <trkpt lat="46.91261" lon="-0.89522">
        <ele>158</ele>
        <time>2023-11-29T21:24:24Z</time>
      </trkpt>
      <trkpt lat="46.91285" lon="-0.89517">
        <ele>157</ele>
        <time>2023-11-29T21:24:28Z</time>
      </trkpt>
      <trkpt lat="46.91303" lon="-0.89518">
        <ele>157</ele>
        <time>2023-11-29T21:24:31Z</time>
      </trkpt>
      <trkpt lat="46.91316" lon="-0.89521">
        <ele>157</ele>
        <time>2023-11-29T21:24:33Z</time>
      </trkpt>
      <trkpt lat="46.91334" lon="-0.89529">
        <ele>156</ele>
        <time>2023-11-29T21:24:37Z</time>
      </trkpt>
      <trkpt lat="46.9137" lon="-0.89555">
        <ele>156</ele>
        <time>2023-11-29T21:24:44Z</time>
      </trkpt>
      <trkpt lat="46.91431" lon="-0.89603">
        <ele>153</ele>
        <time>2023-11-29T21:24:56Z</time>
      </trkpt>
      <trkpt lat="46.91451" lon="-0.89616">
        <ele>153</ele>
        <time>2023-11-29T21:25:00Z</time>
      </trkpt>
      <trkpt lat="46.9148" lon="-0.89628">
        <ele>153</ele>
        <time>2023-11-29T21:25:05Z</time>
      </trkpt>
      <trkpt lat="46.91562" lon="-0.89661">
        <ele>152</ele>
        <time>2023-11-29T21:25:21Z</time>
      </trkpt>
      <trkpt lat="46.91576" lon="-0.89669">
        <ele>152</ele>
        <time>2023-11-29T21:25:23Z</time>
      </trkpt>
      <trkpt lat="46.91587" lon="-0.89678">
        <ele>152</ele>
        <time>2023-11-29T21:25:26Z</time>
      </trkpt>
      <trkpt lat="46.91607" lon="-0.89703">
        <ele>152</ele>
        <time>2023-11-29T21:25:30Z</time>
      </trkpt>
      <trkpt lat="46.91622" lon="-0.89729">
        <ele>152</ele>
        <time>2023-11-29T21:25:34Z</time>
      </trkpt>
      <trkpt lat="46.91657" lon="-0.8982">
        <ele>154</ele>
        <time>2023-11-29T21:25:47Z</time>
      </trkpt>
      <trkpt lat="46.91679" lon="-0.89862">
        <ele>155</ele>
        <time>2023-11-29T21:25:53Z</time>
      </trkpt>
      <trkpt lat="46.917" lon="-0.89895">
        <ele>156</ele>
        <time>2023-11-29T21:25:59Z</time>
      </trkpt>
      <trkpt lat="46.91718" lon="-0.89917">
        <ele>156</ele>
        <time>2023-11-29T21:26:03Z</time>
      </trkpt>
      <trkpt lat="46.9206" lon="-0.90246">
        <ele>175</ele>
        <time>2023-11-29T21:27:16Z</time>
      </trkpt>
      <trkpt lat="46.92095" lon="-0.90273">
        <ele>175</ele>
        <time>2023-11-29T21:27:23Z</time>
      </trkpt>
      <trkpt lat="46.92121" lon="-0.90286">
        <ele>176</ele>
        <time>2023-11-29T21:27:28Z</time>
      </trkpt>
      <trkpt lat="46.92153" lon="-0.90291">
        <ele>178</ele>
        <time>2023-11-29T21:27:34Z</time>
      </trkpt>
      <trkpt lat="46.92168" lon="-0.90289">
        <ele>179</ele>
        <time>2023-11-29T21:27:36Z</time>
      </trkpt>
      <trkpt lat="46.92188" lon="-0.90283">
        <ele>179</ele>
        <time>2023-11-29T21:27:40Z</time>
      </trkpt>
      <trkpt lat="46.92223" lon="-0.90259">
        <ele>181</ele>
        <time>2023-11-29T21:27:47Z</time>
      </trkpt>
      <trkpt lat="46.92382" lon="-0.90105">
        <ele>182</ele>
        <time>2023-11-29T21:28:21Z</time>
      </trkpt>
      <trkpt lat="46.92417" lon="-0.90077">
        <ele>182</ele>
        <time>2023-11-29T21:28:28Z</time>
      </trkpt>
      <trkpt lat="46.92455" lon="-0.9006">
        <ele>184</ele>
        <time>2023-11-29T21:28:35Z</time>
      </trkpt>
      <trkpt lat="46.92471" lon="-0.90055">
        <ele>185</ele>
        <time>2023-11-29T21:28:38Z</time>
      </trkpt>
      <trkpt lat="46.92516" lon="-0.90049">
        <ele>188</ele>
        <time>2023-11-29T21:28:46Z</time>
      </trkpt>
      <trkpt lat="46.92519" lon="-0.90038">
        <ele>188</ele>
        <time>2023-11-29T21:28:47Z</time>
      </trkpt>
      <trkpt lat="46.92525" lon="-0.90031">
        <ele>188</ele>
        <time>2023-11-29T21:28:49Z</time>
      </trkpt>
      <trkpt lat="46.92533" lon="-0.9003">
        <ele>188</ele>
        <time>2023-11-29T21:28:50Z</time>
      </trkpt>
      <trkpt lat="46.9254" lon="-0.90037">
        <ele>189</ele>
        <time>2023-11-29T21:28:52Z</time>
      </trkpt>
      <trkpt lat="46.92543" lon="-0.90047">
        <ele>189</ele>
        <time>2023-11-29T21:28:53Z</time>
      </trkpt>
      <trkpt lat="46.92625" lon="-0.90033">
        <ele>193</ele>
        <time>2023-11-29T21:29:08Z</time>
      </trkpt>
      <trkpt lat="46.92844" lon="-0.90002">
        <ele>194</ele>
        <time>2023-11-29T21:29:47Z</time>
      </trkpt>
      <trkpt lat="46.92869" lon="-0.90001">
        <ele>194</ele>
        <time>2023-11-29T21:29:51Z</time>
      </trkpt>
      <trkpt lat="46.92887" lon="-0.90004">
        <ele>195</ele>
        <time>2023-11-29T21:29:54Z</time>
      </trkpt>
      <trkpt lat="46.93111" lon="-0.90073">
        <ele>196</ele>
        <time>2023-11-29T21:30:35Z</time>
      </trkpt>
      <trkpt lat="46.93136" lon="-0.90073">
        <ele>195</ele>
        <time>2023-11-29T21:30:40Z</time>
      </trkpt>
      <trkpt lat="46.93155" lon="-0.90065">
        <ele>194</ele>
        <time>2023-11-29T21:30:43Z</time>
      </trkpt>
      <trkpt lat="46.93257" lon="-0.89973">
        <ele>194</ele>
        <time>2023-11-29T21:31:04Z</time>
      </trkpt>
      <trkpt lat="46.93319" lon="-0.89907">
        <ele>194</ele>
        <time>2023-11-29T21:31:18Z</time>
      </trkpt>
      <trkpt lat="46.93402" lon="-0.89814">
        <ele>192</ele>
        <time>2023-11-29T21:31:37Z</time>
      </trkpt>
      <trkpt lat="46.93423" lon="-0.89794">
        <ele>191</ele>
        <time>2023-11-29T21:31:41Z</time>
      </trkpt>
      <trkpt lat="46.93476" lon="-0.89763">
        <ele>188</ele>
        <time>2023-11-29T21:31:51Z</time>
      </trkpt>
      <trkpt lat="46.93474" lon="-0.89757">
        <ele>188</ele>
        <time>2023-11-29T21:31:52Z</time>
      </trkpt>
      <trkpt lat="46.93475" lon="-0.89746">
        <ele>188</ele>
        <time>2023-11-29T21:31:53Z</time>
      </trkpt>
      <trkpt lat="46.93477" lon="-0.8974">
        <ele>188</ele>
        <time>2023-11-29T21:31:54Z</time>
      </trkpt>
      <trkpt lat="46.93481" lon="-0.89735">
        <ele>188</ele>
        <time>2023-11-29T21:31:55Z</time>
      </trkpt>
      <trkpt lat="46.93485" lon="-0.89732">
        <ele>187</ele>
        <time>2023-11-29T21:31:56Z</time>
      </trkpt>
      <trkpt lat="46.9349" lon="-0.89732">
        <ele>187</ele>
        <time>2023-11-29T21:31:57Z</time>
      </trkpt>
      <trkpt lat="46.93495" lon="-0.89735">
        <ele>187</ele>
        <time>2023-11-29T21:31:58Z</time>
      </trkpt>
      <trkpt lat="46.93498" lon="-0.8974">
        <ele>187</ele>
        <time>2023-11-29T21:31:59Z</time>
      </trkpt>
      <trkpt lat="46.93501" lon="-0.89753">
        <ele>187</ele>
        <time>2023-11-29T21:32:00Z</time>
      </trkpt>
      <trkpt lat="46.93635" lon="-0.8975">
        <ele>179</ele>
        <time>2023-11-29T21:32:24Z</time>
      </trkpt>
      <trkpt lat="46.93783" lon="-0.89756">
        <ele>176</ele>
        <time>2023-11-29T21:32:50Z</time>
      </trkpt>
      <trkpt lat="46.93888" lon="-0.89766">
        <ele>175</ele>
        <time>2023-11-29T21:33:09Z</time>
      </trkpt>
      <trkpt lat="46.93939" lon="-0.89767">
        <ele>175</ele>
        <time>2023-11-29T21:33:18Z</time>
      </trkpt>
      <trkpt lat="46.94197" lon="-0.89739">
        <ele>172</ele>
        <time>2023-11-29T21:34:04Z</time>
      </trkpt>
      <trkpt lat="46.94254" lon="-0.89728">
        <ele>174</ele>
        <time>2023-11-29T21:34:15Z</time>
      </trkpt>
      <trkpt lat="46.9445" lon="-0.89664">
        <ele>173</ele>
        <time>2023-11-29T21:34:50Z</time>
      </trkpt>
      <trkpt lat="46.94555" lon="-0.89634">
        <ele>171</ele>
        <time>2023-11-29T21:35:09Z</time>
      </trkpt>
      <trkpt lat="46.94577" lon="-0.89633">
        <ele>170</ele>
        <time>2023-11-29T21:35:13Z</time>
      </trkpt>
      <trkpt lat="46.94612" lon="-0.89635">
        <ele>169</ele>
        <time>2023-11-29T21:35:19Z</time>
      </trkpt>
      <trkpt lat="46.94656" lon="-0.89644">
        <ele>168</ele>
        <time>2023-11-29T21:35:27Z</time>
      </trkpt>
      <trkpt lat="46.94677" lon="-0.89652">
        <ele>167</ele>
        <time>2023-11-29T21:35:31Z</time>
      </trkpt>
      <trkpt lat="46.9473" lon="-0.89681">
        <ele>165</ele>
        <time>2023-11-29T21:35:41Z</time>
      </trkpt>
      <trkpt lat="46.94755" lon="-0.89693">
        <ele>165</ele>
        <time>2023-11-29T21:35:46Z</time>
      </trkpt>
      <trkpt lat="46.94782" lon="-0.897">
        <ele>164</ele>
        <time>2023-11-29T21:35:51Z</time>
      </trkpt>
      <trkpt lat="46.94827" lon="-0.89706">
        <ele>163</ele>
        <time>2023-11-29T21:35:59Z</time>
      </trkpt>
      <trkpt lat="46.94829" lon="-0.89698">
        <ele>163</ele>
        <time>2023-11-29T21:36:00Z</time>
      </trkpt>
      <trkpt lat="46.94832" lon="-0.89692">
        <ele>163</ele>
        <time>2023-11-29T21:36:01Z</time>
      </trkpt>
      <trkpt lat="46.94837" lon="-0.89688">
        <ele>163</ele>
        <time>2023-11-29T21:36:02Z</time>
      </trkpt>
      <trkpt lat="46.94842" lon="-0.89687">
        <ele>163</ele>
        <time>2023-11-29T21:36:03Z</time>
      </trkpt>
      <trkpt lat="46.94848" lon="-0.89689">
        <ele>162</ele>
        <time>2023-11-29T21:36:04Z</time>
      </trkpt>
      <trkpt lat="46.94852" lon="-0.89693">
        <ele>162</ele>
        <time>2023-11-29T21:36:05Z</time>
      </trkpt>
      <trkpt lat="46.9494" lon="-0.89606">
        <ele>158</ele>
        <time>2023-11-29T21:36:24Z</time>
      </trkpt>
      <trkpt lat="46.94962" lon="-0.89589">
        <ele>158</ele>
        <time>2023-11-29T21:36:28Z</time>
      </trkpt>
      <trkpt lat="46.94977" lon="-0.89581">
        <ele>158</ele>
        <time>2023-11-29T21:36:31Z</time>
      </trkpt>
      <trkpt lat="46.95004" lon="-0.8957">
        <ele>157</ele>
        <time>2023-11-29T21:36:36Z</time>
      </trkpt>
      <trkpt lat="46.95031" lon="-0.89565">
        <ele>156</ele>
        <time>2023-11-29T21:36:41Z</time>
      </trkpt>
      <trkpt lat="46.95067" lon="-0.89566">
        <ele>155</ele>
        <time>2023-11-29T21:36:47Z</time>
      </trkpt>
      <trkpt lat="46.95099" lon="-0.89574">
        <ele>154</ele>
        <time>2023-11-29T21:36:53Z</time>
      </trkpt>
      <trkpt lat="46.95133" lon="-0.8959">
        <ele>151</ele>
        <time>2023-11-29T21:36:59Z</time>
      </trkpt>
      <trkpt lat="46.95218" lon="-0.89647">
        <ele>148</ele>
        <time>2023-11-29T21:37:16Z</time>
      </trkpt>
      <trkpt lat="46.95305" lon="-0.89694">
        <ele>148</ele>
        <time>2023-11-29T21:37:32Z</time>
      </trkpt>
      <trkpt lat="46.95448" lon="-0.89773">
        <ele>143</ele>
        <time>2023-11-29T21:38:00Z</time>
      </trkpt>
      <trkpt lat="46.9548" lon="-0.89788">
        <ele>143</ele>
        <time>2023-11-29T21:38:06Z</time>
      </trkpt>
      <trkpt lat="46.95533" lon="-0.89806">
        <ele>142</ele>
        <time>2023-11-29T21:38:15Z</time>
      </trkpt>
      <trkpt lat="46.95609" lon="-0.89803">
        <ele>141</ele>
        <time>2023-11-29T21:38:29Z</time>
      </trkpt>
      <trkpt lat="46.95622" lon="-0.89797">
        <ele>141</ele>
        <time>2023-11-29T21:38:31Z</time>
      </trkpt>
      <trkpt lat="46.95643" lon="-0.89785">
        <ele>140</ele>
        <time>2023-11-29T21:38:35Z</time>
      </trkpt>
      <trkpt lat="46.95676" lon="-0.89756">
        <ele>139</ele>
        <time>2023-11-29T21:38:42Z</time>
      </trkpt>
      <trkpt lat="46.95754" lon="-0.89661">
        <ele>135</ele>
        <time>2023-11-29T21:39:00Z</time>
      </trkpt>
      <trkpt lat="46.95806" lon="-0.89603">
        <ele>135</ele>
        <time>2023-11-29T21:39:12Z</time>
      </trkpt>
      <trkpt lat="46.95813" lon="-0.89591">
        <ele>135</ele>
        <time>2023-11-29T21:39:14Z</time>
      </trkpt>
      <trkpt lat="46.95818" lon="-0.89583">
        <ele>134</ele>
        <time>2023-11-29T21:39:15Z</time>
      </trkpt>
      <trkpt lat="46.95805" lon="-0.89569">
        <ele>135</ele>
        <time>2023-11-29T21:39:18Z</time>
      </trkpt>
      <trkpt lat="46.95774" lon="-0.89546">
        <ele>135</ele>
        <time>2023-11-29T21:39:24Z</time>
      </trkpt>
      <trkpt lat="46.95781" lon="-0.89517">
        <ele>135</ele>
        <time>2023-11-29T21:39:28Z</time>
      </trkpt>
      <trkpt lat="46.95804" lon="-0.89463">
        <ele>133</ele>
        <time>2023-11-29T21:39:35Z</time>
      </trkpt>
      <trkpt lat="46.9584" lon="-0.89307">
        <ele>127</ele>
        <time>2023-11-29T21:39:55Z</time>
      </trkpt>
      <trkpt lat="46.95844" lon="-0.89292">
        <ele>126</ele>
        <time>2023-11-29T21:39:57Z</time>
      </trkpt>
      <trkpt lat="46.9586" lon="-0.89271">
        <ele>125</ele>
        <time>2023-11-29T21:40:01Z</time>
      </trkpt>
      <trkpt lat="46.95864" lon="-0.8926">
        <ele>125</ele>
        <time>2023-11-29T21:40:03Z</time>
      </trkpt>
      <trkpt lat="46.95881" lon="-0.89177">
        <ele>123</ele>
        <time>2023-11-29T21:40:13Z</time>
      </trkpt>
      <trkpt lat="46.95883" lon="-0.89155">
        <ele>123</ele>
        <time>2023-11-29T21:40:16Z</time>
      </trkpt>
      <trkpt lat="46.95896" lon="-0.89122">
        <ele>122</ele>
        <time>2023-11-29T21:40:21Z</time>
      </trkpt>
      <trkpt lat="46.95901" lon="-0.89115">
        <ele>122</ele>
        <time>2023-11-29T21:40:22Z</time>
      </trkpt>
      <trkpt lat="46.9592" lon="-0.89097">
        <ele>121</ele>
        <time>2023-11-29T21:40:26Z</time>
      </trkpt>
      <trkpt lat="46.95927" lon="-0.89094">
        <ele>121</ele>
        <time>2023-11-29T21:40:27Z</time>
      </trkpt>
      <trkpt lat="46.95928" lon="-0.89091">
        <ele>121</ele>
        <time>2023-11-29T21:40:28Z</time>
      </trkpt>
      <trkpt lat="46.95931" lon="-0.89086">
        <ele>121</ele>
        <time>2023-11-29T21:40:28Z</time>
      </trkpt>
      <trkpt lat="46.95934" lon="-0.89087">
        <ele>121</ele>
        <time>2023-11-29T21:40:29Z</time>
      </trkpt>
      <trkpt lat="46.95942" lon="-0.8908">
        <ele>120</ele>
        <time>2023-11-29T21:40:31Z</time>
      </trkpt>
      <trkpt lat="46.95971" lon="-0.89036">
        <ele>117</ele>
        <time>2023-11-29T21:40:38Z</time>
      </trkpt>
      <trkpt lat="46.95994" lon="-0.88991">
        <ele>115</ele>
        <time>2023-11-29T21:40:45Z</time>
      </trkpt>
      <trkpt lat="46.96008" lon="-0.88954">
        <ele>113</ele>
        <time>2023-11-29T21:40:50Z</time>
      </trkpt>
      <trkpt lat="46.96014" lon="-0.88926">
        <ele>112</ele>
        <time>2023-11-29T21:40:53Z</time>
      </trkpt>
      <trkpt lat="46.96021" lon="-0.88887">
        <ele>112</ele>
        <time>2023-11-29T21:40:58Z</time>
      </trkpt>
      <trkpt lat="46.9603" lon="-0.88844">
        <ele>112</ele>
        <time>2023-11-29T21:41:04Z</time>
      </trkpt>
      <trkpt lat="46.96037" lon="-0.88794">
        <ele>112</ele>
        <time>2023-11-29T21:41:10Z</time>
      </trkpt>
      <trkpt lat="46.96041" lon="-0.88746">
        <ele>113</ele>
        <time>2023-11-29T21:41:16Z</time>
      </trkpt>
      <trkpt lat="46.96039" lon="-0.8873">
        <ele>113</ele>
        <time>2023-11-29T21:41:18Z</time>
      </trkpt>
      <trkpt lat="46.96015" lon="-0.88721">
        <ele>112.5</ele>
      </trkpt>
      <trkpt lat="46.95979" lon="-0.8872">
        <ele>111.9</ele>
      </trkpt>
      <trkpt lat="46.95941" lon="-0.88719">
        <ele>112.9</ele>
      </trkpt>
      <trkpt lat="46.95893" lon="-0.88721">
        <ele>112.8</ele>
      </trkpt>
      <trkpt lat="46.95879" lon="-0.8871">
        <ele>112.2</ele>
      </trkpt>
      <trkpt lat="46.9585" lon="-0.88653">
        <ele>112</ele>
      </trkpt>
      <trkpt lat="46.95808" lon="-0.88574">
        <ele>112</ele>
      </trkpt>
      <trkpt lat="46.95797" lon="-0.88526">
        <ele>112</ele>
      </trkpt>
      <trkpt lat="46.95787" lon="-0.88413">
        <ele>112</ele>
      </trkpt>
      <trkpt lat="46.95781" lon="-0.88308">
        <ele>112.8</ele>
      </trkpt>
      <trkpt lat="46.95775" lon="-0.88199">
        <ele>113</ele>
      </trkpt>
      <trkpt lat="46.95767" lon="-0.88136">
        <ele>114.8</ele>
      </trkpt>
      <trkpt lat="46.95742" lon="-0.88085">
        <ele>117.1</ele>
      </trkpt>
      <trkpt lat="46.95712" lon="-0.88032">
        <ele>119.6</ele>
      </trkpt>
      <trkpt lat="46.95692" lon="-0.87997">
        <ele>121.1</ele>
      </trkpt>
      <trkpt lat="46.95677" lon="-0.87974">
        <ele>121.6</ele>
      </trkpt>
      <trkpt lat="46.95625" lon="-0.87919">
        <ele>127.2</ele>
      </trkpt>
      <trkpt lat="46.95596" lon="-0.87881">
        <ele>128.2</ele>
      </trkpt>
      <trkpt lat="46.9558" lon="-0.87854">
        <ele>126.8</ele>
      </trkpt>
      <trkpt lat="46.9557" lon="-0.87793">
        <ele>125</ele>
      </trkpt>
      <trkpt lat="46.95559" lon="-0.87745">
        <ele>125.3</ele>
      </trkpt>
      <trkpt lat="46.95537" lon="-0.87709">
        <ele>126.5</ele>
      </trkpt>
      <trkpt lat="46.95513" lon="-0.87663">
        <ele>128.1</ele>
      </trkpt>
      <trkpt lat="46.95496" lon="-0.87612">
        <ele>128.8</ele>
      </trkpt>
      <trkpt lat="46.95485" lon="-0.87563">
        <ele>129.2</ele>
      </trkpt>
      <trkpt lat="46.95484" lon="-0.87533">
        <ele>129.2</ele>
      </trkpt>
      <trkpt lat="46.95465" lon="-0.87492">
        <ele>131.4</ele>
      </trkpt>
      <trkpt lat="46.95428" lon="-0.87443">
        <ele>133.4</ele>
      </trkpt>
      <trkpt lat="46.95395" lon="-0.87395">
        <ele>136.1</ele>
      </trkpt>
      <trkpt lat="46.95355" lon="-0.87345">
        <ele>138.2</ele>
      </trkpt>
      <trkpt lat="46.95316" lon="-0.87287">
        <ele>141</ele>
      </trkpt>
      <trkpt lat="46.95288" lon="-0.87176">
        <ele>142.1</ele>
      </trkpt>
      <trkpt lat="46.95277" lon="-0.87082">
        <ele>143.9</ele>
      </trkpt>
      <trkpt lat="46.95266" lon="-0.87013">
        <ele>145.1</ele>
      </trkpt>
      <trkpt lat="46.95199" lon="-0.87026">
        <ele>142.9</ele>
      </trkpt>
      <trkpt lat="46.95113" lon="-0.87028">
        <ele>147.9</ele>
      </trkpt>
      <trkpt lat="46.95048" lon="-0.87062">
        <ele>152.9</ele>
      </trkpt>
      <trkpt lat="46.94953" lon="-0.87116">
        <ele>159.3</ele>
      </trkpt>
      <trkpt lat="46.94913" lon="-0.87148">
        <ele>160.7</ele>
      </trkpt>
      <trkpt lat="46.94883" lon="-0.87187">
        <ele>163.4</ele>
      </trkpt>
      <trkpt lat="46.94823" lon="-0.87243">
        <ele>164.3</ele>
      </trkpt>
      <trkpt lat="46.94767" lon="-0.8729">
        <ele>163.6</ele>
      </trkpt>
      <trkpt lat="46.94725" lon="-0.87322">
        <ele>162.4</ele>
      </trkpt>
      <trkpt lat="46.94705" lon="-0.87335">
        <ele>162</ele>
      </trkpt>
      <trkpt lat="46.94675" lon="-0.87298">
        <ele>162.5</ele>
      </trkpt>
      <trkpt lat="46.94644" lon="-0.87251">
        <ele>164</ele>
      </trkpt>
      <trkpt lat="46.94607" lon="-0.872">
        <ele>167</ele>
      </trkpt>
      <trkpt lat="46.94563" lon="-0.87135">
        <ele>169.8</ele>
      </trkpt>
      <trkpt lat="46.94544" lon="-0.87082">
        <ele>171.4</ele>
      </trkpt>
      <trkpt lat="46.94496" lon="-0.87007">
        <ele>171.2</ele>
      </trkpt>
      <trkpt lat="46.94456" lon="-0.86949">
        <ele>169.2</ele>
      </trkpt>
      <trkpt lat="46.94415" lon="-0.86891">
        <ele>166.1</ele>
      </trkpt>
      <trkpt lat="46.94382" lon="-0.86837">
        <ele>165.7</ele>
      </trkpt>
      <trkpt lat="46.94348" lon="-0.86804">
        <ele>166</ele>
      </trkpt>
      <trkpt lat="46.94297" lon="-0.86752">
        <ele>165.1</ele>
      </trkpt>
      <trkpt lat="46.94253" lon="-0.86693">
        <ele>164</ele>
      </trkpt>
      <trkpt lat="46.94204" lon="-0.86631">
        <ele>161.7</ele>
      </trkpt>
      <trkpt lat="46.94155" lon="-0.86577">
        <ele>160.2</ele>
      </trkpt>
      <trkpt lat="46.94124" lon="-0.86537">
        <ele>158</ele>
      </trkpt>
      <trkpt lat="46.94086" lon="-0.8652">
        <ele>156.7</ele>
      </trkpt>
      <trkpt lat="46.94046" lon="-0.86489">
        <ele>154.5</ele>
      </trkpt>
      <trkpt lat="46.9401" lon="-0.86464">
        <ele>152.3</ele>
      </trkpt>
      <trkpt lat="46.9397" lon="-0.8641">
        <ele>150.4</ele>
      </trkpt>
      <trkpt lat="46.93944" lon="-0.86333">
        <ele>157.1</ele>
      </trkpt>
      <trkpt lat="46.93923" lon="-0.86268">
        <ele>158.2</ele>
      </trkpt>
      <trkpt lat="46.93889" lon="-0.86211">
        <ele>158</ele>
      </trkpt>
      <trkpt lat="46.93816" lon="-0.86144">
        <ele>158.7</ele>
      </trkpt>
      <trkpt lat="46.93772" lon="-0.8609">
        <ele>160.9</ele>
      </trkpt>
      <trkpt lat="46.93679" lon="-0.86005">
        <ele>168.1</ele>
      </trkpt>
      <trkpt lat="46.9362" lon="-0.85966">
        <ele>169</ele>
      </trkpt>
      <trkpt lat="46.93548" lon="-0.85895">
        <ele>163.7</ele>
      </trkpt>
      <trkpt lat="46.93507" lon="-0.85852">
        <ele>160.4</ele>
      </trkpt>
      <trkpt lat="46.93462" lon="-0.8582">
        <ele>158.2</ele>
      </trkpt>
      <trkpt lat="46.93421" lon="-0.85809">
        <ele>155.4</ele>
      </trkpt>
      <trkpt lat="46.93371" lon="-0.85792">
        <ele>152.9</ele>
      </trkpt>
      <trkpt lat="46.93343" lon="-0.85792">
        <ele>151.5</ele>
      </trkpt>
      <trkpt lat="46.93296" lon="-0.85779">
        <ele>150.3</ele>
      </trkpt>
      <trkpt lat="46.93261" lon="-0.85769">
        <ele>154.9</ele>
      </trkpt>
      <trkpt lat="46.9321" lon="-0.85743">
        <ele>159.7</ele>
      </trkpt>
      <trkpt lat="46.93176" lon="-0.85747">
        <ele>160.8</ele>
      </trkpt>
      <trkpt lat="46.9312" lon="-0.85771">
        <ele>159.5</ele>
      </trkpt>
      <trkpt lat="46.93084" lon="-0.85781">
        <ele>158.7</ele>
      </trkpt>
      <trkpt lat="46.93051" lon="-0.85773">
        <ele>158</ele>
      </trkpt>
      <trkpt lat="46.92994" lon="-0.85723">
        <ele>157.5</ele>
      </trkpt>
      <trkpt lat="46.92939" lon="-0.85683">
        <ele>156.4</ele>
      </trkpt>
      <trkpt lat="46.9289" lon="-0.85644">
        <ele>157.5</ele>
      </trkpt>
      <trkpt lat="46.92823" lon="-0.85605">
        <ele>157.6</ele>
      </trkpt>
      <trkpt lat="46.9275" lon="-0.8555">
        <ele>169</ele>
      </trkpt>
      <trkpt lat="46.92695" lon="-0.85515">
        <ele>172.9</ele>
      </trkpt>
      <trkpt lat="46.92641" lon="-0.85479">
        <ele>177.8</ele>
      </trkpt>
      <trkpt lat="46.92605" lon="-0.8544">
        <ele>181.1</ele>
      </trkpt>
      <trkpt lat="46.92572" lon="-0.85425">
        <ele>181.3</ele>
      </trkpt>
      <trkpt lat="46.92539" lon="-0.85395">
        <ele>180.8</ele>
      </trkpt>
      <trkpt lat="46.92512" lon="-0.85348">
        <ele>181.6</ele>
      </trkpt>
      <trkpt lat="46.92487" lon="-0.85296">
        <ele>182.5</ele>
      </trkpt>
      <trkpt lat="46.9244" lon="-0.85269">
        <ele>182.9</ele>
      </trkpt>
      <trkpt lat="46.92429" lon="-0.85256">
        <ele>182.9</ele>
      </trkpt>
      <trkpt lat="46.92386" lon="-0.85239">
        <ele>182.4</ele>
      </trkpt>
      <trkpt lat="46.92323" lon="-0.85208">
        <ele>183.4</ele>
      </trkpt>
      <trkpt lat="46.92277" lon="-0.8519">
        <ele>187.1</ele>
      </trkpt>
      <trkpt lat="46.92266" lon="-0.85191">
        <ele>188.3</ele>
      </trkpt>
      <trkpt lat="46.92247" lon="-0.85189">
        <ele>190.3</ele>
      </trkpt>
      <trkpt lat="46.92177" lon="-0.85163">
        <ele>192</ele>
      </trkpt>
      <trkpt lat="46.92143" lon="-0.8514">
        <ele>191.1</ele>
      </trkpt>
      <trkpt lat="46.92121" lon="-0.85119">
        <ele>190.3</ele>
      </trkpt>
      <trkpt lat="46.92105" lon="-0.85096">
        <ele>189.1</ele>
      </trkpt>
      <trkpt lat="46.92079" lon="-0.85039">
        <ele>186.1</ele>
      </trkpt>
      <trkpt lat="46.92055" lon="-0.85013">
        <ele>183.4</ele>
      </trkpt>
      <trkpt lat="46.92023" lon="-0.85001">
        <ele>179.6</ele>
      </trkpt>
      <trkpt lat="46.91982" lon="-0.84968">
        <ele>175.9</ele>
      </trkpt>
      <trkpt lat="46.91953" lon="-0.84923">
        <ele>179</ele>
      </trkpt>
      <trkpt lat="46.91953" lon="-0.84902">
        <ele>179.9</ele>
      </trkpt>
      <trkpt lat="46.91957" lon="-0.84867">
        <ele>181.2</ele>
      </trkpt>
      <trkpt lat="46.91933" lon="-0.84862">
        <ele>182.4</ele>
      </trkpt>
      <trkpt lat="46.91905" lon="-0.8485">
        <ele>183.4</ele>
      </trkpt>
      <trkpt lat="46.91896" lon="-0.84838">
        <ele>183.8</ele>
      </trkpt>
      <trkpt lat="46.91883" lon="-0.84816">
        <ele>184.2</ele>
      </trkpt>
      <trkpt lat="46.91864" lon="-0.84787">
        <ele>184.2</ele>
      </trkpt>
      <trkpt lat="46.91816" lon="-0.8473">
        <ele>179.7</ele>
      </trkpt>
      <trkpt lat="46.91786" lon="-0.84702">
        <ele>178.1</ele>
      </trkpt>
      <trkpt lat="46.9176" lon="-0.84669">
        <ele>175.5</ele>
      </trkpt>
      <trkpt lat="46.91733" lon="-0.84645">
        <ele>173</ele>
      </trkpt>
      <trkpt lat="46.91705" lon="-0.8463">
        <ele>170.8</ele>
      </trkpt>
      <trkpt lat="46.91682" lon="-0.84616">
        <ele>169.5</ele>
      </trkpt>
      <trkpt lat="46.91666" lon="-0.84603">
        <ele>169.3</ele>
      </trkpt>
      <trkpt lat="46.91648" lon="-0.84575">
        <ele>170.3</ele>
      </trkpt>
      <trkpt lat="46.91622" lon="-0.84533">
        <ele>170.9</ele>
      </trkpt>
      <trkpt lat="46.91588" lon="-0.84481">
        <ele>170.7</ele>
      </trkpt>
      <trkpt lat="46.91549" lon="-0.84432">
        <ele>168.5</ele>
      </trkpt>
      <trkpt lat="46.91524" lon="-0.84399">
        <ele>165.9</ele>
      </trkpt>
      <trkpt lat="46.91498" lon="-0.84383">
        <ele>164</ele>
      </trkpt>
      <trkpt lat="46.91477" lon="-0.8438">
        <ele>164</ele>
      </trkpt>
      <trkpt lat="46.9145" lon="-0.84379">
        <ele>165.3</ele>
      </trkpt>
      <trkpt lat="46.91425" lon="-0.84377">
        <ele>166.6</ele>
      </trkpt>
      <trkpt lat="46.91406" lon="-0.84379">
        <ele>166.9</ele>
      </trkpt>
      <trkpt lat="46.91386" lon="-0.84388">
        <ele>167</ele>
      </trkpt>
      <trkpt lat="46.9136" lon="-0.84401">
        <ele>167.8</ele>
      </trkpt>
      <trkpt lat="46.91333" lon="-0.84415">
        <ele>168.8</ele>
      </trkpt>
      <trkpt lat="46.91312" lon="-0.84417">
        <ele>169.8</ele>
      </trkpt>
      <trkpt lat="46.91286" lon="-0.8441">
        <ele>170.5</ele>
      </trkpt>
      <trkpt lat="46.91254" lon="-0.84393">
        <ele>170.4</ele>
      </trkpt>
      <trkpt lat="46.91219" lon="-0.84373">
        <ele>171</ele>
      </trkpt>
      <trkpt lat="46.91182" lon="-0.84362">
        <ele>171.2</ele>
      </trkpt>
      <trkpt lat="46.91143" lon="-0.84367">
        <ele>171.8</ele>
      </trkpt>
      <trkpt lat="46.91097" lon="-0.84368">
        <ele>172.7</ele>
      </trkpt>
      <trkpt lat="46.91062" lon="-0.84361">
        <ele>173.5</ele>
      </trkpt>
      <trkpt lat="46.91031" lon="-0.84352">
        <ele>174</ele>
      </trkpt>
      <trkpt lat="46.90993" lon="-0.84342">
        <ele>175.2</ele>
      </trkpt>
      <trkpt lat="46.9096" lon="-0.84331">
        <ele>175.3</ele>
      </trkpt>
      <trkpt lat="46.90911" lon="-0.84315">
        <ele>177</ele>
      </trkpt>
      <trkpt lat="46.90864" lon="-0.84292">
        <ele>177.9</ele>
      </trkpt>
      <trkpt lat="46.90835" lon="-0.84284">
        <ele>178.2</ele>
      </trkpt>
      <trkpt lat="46.90814" lon="-0.84284">
        <ele>178.2</ele>
      </trkpt>
      <trkpt lat="46.90778" lon="-0.84295">
        <ele>179</ele>
      </trkpt>
      <trkpt lat="46.9075" lon="-0.84294">
        <ele>180</ele>
      </trkpt>
      <trkpt lat="46.90712" lon="-0.84288">
        <ele>180.6</ele>
      </trkpt>
      <trkpt lat="46.90646" lon="-0.8427">
        <ele>182.1</ele>
      </trkpt>
      <trkpt lat="46.90607" lon="-0.84262">
        <ele>183.7</ele>
      </trkpt>
      <trkpt lat="46.90557" lon="-0.84243">
        <ele>186.2</ele>
      </trkpt>
      <trkpt lat="46.90513" lon="-0.84219">
        <ele>187.6</ele>
      </trkpt>
      <trkpt lat="46.90474" lon="-0.84195">
        <ele>187</ele>
      </trkpt>
      <trkpt lat="46.90428" lon="-0.8416">
        <ele>186.8</ele>
      </trkpt>
      <trkpt lat="46.90382" lon="-0.84125">
        <ele>189.3</ele>
      </trkpt>
      <trkpt lat="46.90345" lon="-0.84085">
        <ele>189.4</ele>
      </trkpt>
      <trkpt lat="46.90326" lon="-0.84066">
        <ele>188.1</ele>
      </trkpt>
      <trkpt lat="46.90308" lon="-0.8405">
        <ele>187.3</ele>
      </trkpt>
      <trkpt lat="46.9029" lon="-0.84048">
        <ele>187.3</ele>
      </trkpt>
      <trkpt lat="46.90255" lon="-0.84059">
        <ele>186.9</ele>
      </trkpt>
      <trkpt lat="46.90223" lon="-0.8407">
        <ele>185.5</ele>
      </trkpt>
      <trkpt lat="46.90203" lon="-0.84073">
        <ele>184.7</ele>
      </trkpt>
      <trkpt lat="46.90166" lon="-0.84068">
        <ele>182</ele>
      </trkpt>
      <trkpt lat="46.90146" lon="-0.84059">
        <ele>180.5</ele>
      </trkpt>
      <trkpt lat="46.90111" lon="-0.84052">
        <ele>176.1</ele>
      </trkpt>
      <trkpt lat="46.90082" lon="-0.84046">
        <ele>171.8</ele>
      </trkpt>
      <trkpt lat="46.90051" lon="-0.84035">
        <ele>167.5</ele>
      </trkpt>
      <trkpt lat="46.90026" lon="-0.84025">
        <ele>165</ele>
      </trkpt>
      <trkpt lat="46.90005" lon="-0.8402">
        <ele>163.4</ele>
      </trkpt>
      <trkpt lat="46.8998" lon="-0.84025">
        <ele>161.7</ele>
      </trkpt>
      <trkpt lat="46.89957" lon="-0.84027">
        <ele>160.5</ele>
      </trkpt>
      <trkpt lat="46.89939" lon="-0.84019">
        <ele>160.1</ele>
      </trkpt>
      <trkpt lat="46.89912" lon="-0.83999">
        <ele>158.7</ele>
      </trkpt>
      <trkpt lat="46.89891" lon="-0.83975">
        <ele>157.1</ele>
      </trkpt>
      <trkpt lat="46.89874" lon="-0.8396">
        <ele>155.9</ele>
      </trkpt>
      <trkpt lat="46.89855" lon="-0.83951">
        <ele>154.6</ele>
      </trkpt>
      <trkpt lat="46.8983" lon="-0.83951">
        <ele>152.9</ele>
      </trkpt>
      <trkpt lat="46.89804" lon="-0.83949">
        <ele>152</ele>
      </trkpt>
      <trkpt lat="46.89782" lon="-0.83945">
        <ele>152</ele>
      </trkpt>
      <trkpt lat="46.89759" lon="-0.83927">
        <ele>151.7</ele>
      </trkpt>
      <trkpt lat="46.89748" lon="-0.83913">
        <ele>151.9</ele>
      </trkpt>
      <trkpt lat="46.89727" lon="-0.83871">
        <ele>151.7</ele>
      </trkpt>
      <trkpt lat="46.8971" lon="-0.83823">
        <ele>152.7</ele>
      </trkpt>
      <trkpt lat="46.89699" lon="-0.8379">
        <ele>153</ele>
      </trkpt>
      <trkpt lat="46.8968" lon="-0.83778">
        <ele>152.5</ele>
      </trkpt>
      <trkpt lat="46.89664" lon="-0.83777">
        <ele>152</ele>
      </trkpt>
      <trkpt lat="46.8963" lon="-0.838">
        <ele>151.7</ele>
      </trkpt>
      <trkpt lat="46.89588" lon="-0.83822">
        <ele>150.7</ele>
      </trkpt>
      <trkpt lat="46.89554" lon="-0.83843">
        <ele>149.9</ele>
      </trkpt>
      <trkpt lat="46.89513" lon="-0.83841">
        <ele>148.5</ele>
      </trkpt>
      <trkpt lat="46.89473" lon="-0.83836">
        <ele>147.1</ele>
      </trkpt>
      <trkpt lat="46.89435" lon="-0.83828">
        <ele>145.9</ele>
      </trkpt>
      <trkpt lat="46.89413" lon="-0.8381">
        <ele>145.2</ele>
      </trkpt>
      <trkpt lat="46.89404" lon="-0.83777">
        <ele>144.5</ele>
      </trkpt>
      <trkpt lat="46.89391" lon="-0.83717">
        <ele>143.1</ele>
      </trkpt>
      <trkpt lat="46.89382" lon="-0.83668">
        <ele>142.7</ele>
      </trkpt>
      <trkpt lat="46.89374" lon="-0.83616">
        <ele>142.9</ele>
      </trkpt>
      <trkpt lat="46.89371" lon="-0.83582">
        <ele>143.6</ele>
      </trkpt>
      <trkpt lat="46.89383" lon="-0.83548">
        <ele>144.3</ele>
      </trkpt>
      <trkpt lat="46.89386" lon="-0.83518">
        <ele>145.4</ele>
      </trkpt>
      <trkpt lat="46.89383" lon="-0.83482">
        <ele>146.6</ele>
      </trkpt>
      <trkpt lat="46.89369" lon="-0.83446">
        <ele>148</ele>
      </trkpt>
      <trkpt lat="46.89358" lon="-0.83422">
        <ele>148</ele>
      </trkpt>
      <trkpt lat="46.89337" lon="-0.83399">
        <ele>148.7</ele>
      </trkpt>
      <trkpt lat="46.89313" lon="-0.83392">
        <ele>148.2</ele>
      </trkpt>
      <trkpt lat="46.89279" lon="-0.8339">
        <ele>148</ele>
      </trkpt>
      <trkpt lat="46.89242" lon="-0.83395">
        <ele>147.5</ele>
      </trkpt>
      <trkpt lat="46.89208" lon="-0.83386">
        <ele>146.6</ele>
      </trkpt>
      <trkpt lat="46.89157" lon="-0.83365">
        <ele>144.7</ele>
      </trkpt>
      <trkpt lat="46.89126" lon="-0.83346">
        <ele>143.5</ele>
      </trkpt>
      <trkpt lat="46.8909" lon="-0.83283">
        <ele>143.9</ele>
      </trkpt>
      <trkpt lat="46.89062" lon="-0.83227">
        <ele>142.6</ele>
      </trkpt>
      <trkpt lat="46.89041" lon="-0.8321">
        <ele>141.9</ele>
      </trkpt>
      <trkpt lat="46.89025" lon="-0.83204">
        <ele>141.6</ele>
      </trkpt>
      <trkpt lat="46.89006" lon="-0.83196">
        <ele>141.2</ele>
      </trkpt>
      <trkpt lat="46.88986" lon="-0.83175">
        <ele>140.8</ele>
      </trkpt>
      <trkpt lat="46.88959" lon="-0.8314">
        <ele>140.5</ele>
      </trkpt>
      <trkpt lat="46.88932" lon="-0.8311">
        <ele>140</ele>
      </trkpt>
      <trkpt lat="46.88903" lon="-0.83075">
        <ele>140</ele>
      </trkpt>
      <trkpt lat="46.8886" lon="-0.83018">
        <ele>140</ele>
      </trkpt>
      <trkpt lat="46.88816" lon="-0.82953">
        <ele>140</ele>
      </trkpt>
      <trkpt lat="46.88783" lon="-0.82904">
        <ele>140</ele>
      </trkpt>
      <trkpt lat="46.88759" lon="-0.82858">
        <ele>140</ele>
      </trkpt>
      <trkpt lat="46.88746" lon="-0.82834">
        <ele>140</ele>
      </trkpt>
      <trkpt lat="46.88741" lon="-0.82815">
        <ele>140</ele>
      </trkpt>
      <trkpt lat="46.88734" lon="-0.82783">
        <ele>140</ele>
      </trkpt>
      <trkpt lat="46.88731" lon="-0.82739">
        <ele>140.1</ele>
      </trkpt>
      <trkpt lat="46.88726" lon="-0.82703">
        <ele>140.7</ele>
      </trkpt>
      <trkpt lat="46.88718" lon="-0.82675">
        <ele>141</ele>
      </trkpt>
      <trkpt lat="46.88707" lon="-0.82649">
        <ele>141</ele>
      </trkpt>
      <trkpt lat="46.88694" lon="-0.82625">
        <ele>141</ele>
      </trkpt>
      <trkpt lat="46.88676" lon="-0.82601">
        <ele>141</ele>
      </trkpt>
      <trkpt lat="46.88656" lon="-0.82575">
        <ele>140.6</ele>
      </trkpt>
      <trkpt lat="46.88637" lon="-0.82546">
        <ele>140.4</ele>
      </trkpt>
      <trkpt lat="46.88616" lon="-0.825">
        <ele>141</ele>
      </trkpt>
      <trkpt lat="46.88595" lon="-0.82453">
        <ele>140.8</ele>
      </trkpt>
      <trkpt lat="46.88571" lon="-0.82398">
        <ele>140.6</ele>
      </trkpt>
      <trkpt lat="46.88558" lon="-0.82357">
        <ele>141</ele>
      </trkpt>
      <trkpt lat="46.88553" lon="-0.82327">
        <ele>141.2</ele>
      </trkpt>
      <trkpt lat="46.88548" lon="-0.82288">
        <ele>141.7</ele>
      </trkpt>
      <trkpt lat="46.88547" lon="-0.82249">
        <ele>142</ele>
      </trkpt>
      <trkpt lat="46.88543" lon="-0.82225">
        <ele>142</ele>
      </trkpt>
      <trkpt lat="46.88534" lon="-0.82203">
        <ele>142.2</ele>
      </trkpt>
      <trkpt lat="46.88518" lon="-0.82169">
        <ele>142.6</ele>
      </trkpt>
      <trkpt lat="46.88502" lon="-0.8214">
        <ele>142</ele>
      </trkpt>
      <trkpt lat="46.88485" lon="-0.82117">
        <ele>141.5</ele>
      </trkpt>
      <trkpt lat="46.88474" lon="-0.821">
        <ele>141</ele>
      </trkpt>
      <trkpt lat="46.88467" lon="-0.82085">
        <ele>141</ele>
      </trkpt>
      <trkpt lat="46.88459" lon="-0.82061">
        <ele>141</ele>
      </trkpt>
      <trkpt lat="46.88448" lon="-0.8202">
        <ele>141.4</ele>
      </trkpt>
      <trkpt lat="46.88434" lon="-0.81966">
        <ele>142.1</ele>
      </trkpt>
      <trkpt lat="46.88418" lon="-0.81907">
        <ele>143</ele>
      </trkpt>
      <trkpt lat="46.88397" lon="-0.81824">
        <ele>143.3</ele>
      </trkpt>
      <trkpt lat="46.88381" lon="-0.81785">
        <ele>143.5</ele>
      </trkpt>
      <trkpt lat="46.88357" lon="-0.81754">
        <ele>143.8</ele>
      </trkpt>
      <trkpt lat="46.88329" lon="-0.81716">
        <ele>145.1</ele>
      </trkpt>
      <trkpt lat="46.88291" lon="-0.81668">
        <ele>145.4</ele>
      </trkpt>
      <trkpt lat="46.88273" lon="-0.81643">
        <ele>145.5</ele>
      </trkpt>
      <trkpt lat="46.88259" lon="-0.81623">
        <ele>145.2</ele>
      </trkpt>
      <trkpt lat="46.88243" lon="-0.81584">
        <ele>145.5</ele>
      </trkpt>
      <trkpt lat="46.8822" lon="-0.81524">
        <ele>144.8</ele>
      </trkpt>
      <trkpt lat="46.88191" lon="-0.81451">
        <ele>143.9</ele>
      </trkpt>
      <trkpt lat="46.88172" lon="-0.81401">
        <ele>143.8</ele>
      </trkpt>
      <trkpt lat="46.88149" lon="-0.81349">
        <ele>143.4</ele>
      </trkpt>
      <trkpt lat="46.88121" lon="-0.81311">
        <ele>143.3</ele>
      </trkpt>
      <trkpt lat="46.8809" lon="-0.81273">
        <ele>143.4</ele>
      </trkpt>
      <trkpt lat="46.88057" lon="-0.81231">
        <ele>143.7</ele>
      </trkpt>
      <trkpt lat="46.88032" lon="-0.812">
        <ele>144</ele>
      </trkpt>
      <trkpt lat="46.88019" lon="-0.81181">
        <ele>144.2</ele>
      </trkpt>
      <trkpt lat="46.87997" lon="-0.81138">
        <ele>143.9</ele>
      </trkpt>
      <trkpt lat="46.87976" lon="-0.8109">
        <ele>144.2</ele>
      </trkpt>
      <trkpt lat="46.87968" lon="-0.81056">
        <ele>143.8</ele>
      </trkpt>
      <trkpt lat="46.87965" lon="-0.8101">
        <ele>143.3</ele>
      </trkpt>
      <trkpt lat="46.87964" lon="-0.80974">
        <ele>142.7</ele>
      </trkpt>
      <trkpt lat="46.87955" lon="-0.80943">
        <ele>141.9</ele>
      </trkpt>
      <trkpt lat="46.87937" lon="-0.80906">
        <ele>141</ele>
      </trkpt>
      <trkpt lat="46.87919" lon="-0.80864">
        <ele>141.8</ele>
      </trkpt>
      <trkpt lat="46.87904" lon="-0.80821">
        <ele>141.5</ele>
      </trkpt>
      <trkpt lat="46.87881" lon="-0.80765">
        <ele>142.5</ele>
      </trkpt>
      <trkpt lat="46.87856" lon="-0.80712">
        <ele>144</ele>
      </trkpt>
      <trkpt lat="46.87832" lon="-0.80658">
        <ele>145.4</ele>
      </trkpt>
      <trkpt lat="46.87808" lon="-0.806">
        <ele>148.3</ele>
      </trkpt>
      <trkpt lat="46.87792" lon="-0.80533">
        <ele>149.8</ele>
      </trkpt>
      <trkpt lat="46.87786" lon="-0.80478">
        <ele>151.1</ele>
      </trkpt>
      <trkpt lat="46.87786" lon="-0.80432">
        <ele>151.6</ele>
      </trkpt>
      <trkpt lat="46.87786" lon="-0.8039">
        <ele>151.6</ele>
      </trkpt>
      <trkpt lat="46.87782" lon="-0.80374">
        <ele>150.8</ele>
      </trkpt>
      <trkpt lat="46.87772" lon="-0.80357">
        <ele>150.1</ele>
      </trkpt>
      <trkpt lat="46.87747" lon="-0.80342">
        <ele>149.9</ele>
      </trkpt>
      <trkpt lat="46.8771" lon="-0.80328">
        <ele>148.5</ele>
      </trkpt>
      <trkpt lat="46.87664" lon="-0.80304">
        <ele>146.8</ele>
      </trkpt>
      <trkpt lat="46.8763" lon="-0.80282">
        <ele>145.5</ele>
      </trkpt>
      <trkpt lat="46.87611" lon="-0.80262">
        <ele>145</ele>
      </trkpt>
      <trkpt lat="46.87594" lon="-0.80234">
        <ele>144.1</ele>
      </trkpt>
      <trkpt lat="46.87577" lon="-0.80193">
        <ele>144</ele>
      </trkpt>
      <trkpt lat="46.87561" lon="-0.80155">
        <ele>144.9</ele>
      </trkpt>
      <trkpt lat="46.87535" lon="-0.8011">
        <ele>146</ele>
      </trkpt>
      <trkpt lat="46.87496" lon="-0.80056">
        <ele>147.1</ele>
      </trkpt>
      <trkpt lat="46.87472" lon="-0.80014">
        <ele>148.5</ele>
      </trkpt>
      <trkpt lat="46.87438" lon="-0.79954">
        <ele>150</ele>
      </trkpt>
      <trkpt lat="46.87399" lon="-0.79887">
        <ele>151</ele>
      </trkpt>
      <trkpt lat="46.87355" lon="-0.79826">
        <ele>149.8</ele>
      </trkpt>
      <trkpt lat="46.87331" lon="-0.79797">
        <ele>149</ele>
      </trkpt>
      <trkpt lat="46.8731" lon="-0.79777">
        <ele>149</ele>
      </trkpt>
      <trkpt lat="46.87279" lon="-0.79753">
        <ele>149</ele>
      </trkpt>
      <trkpt lat="46.87252" lon="-0.79744">
        <ele>149.4</ele>
      </trkpt>
      <trkpt lat="46.87191" lon="-0.7972">
        <ele>149</ele>
      </trkpt>
      <trkpt lat="46.87135" lon="-0.79688">
        <ele>148.2</ele>
      </trkpt>
      <trkpt lat="46.87085" lon="-0.7967">
        <ele>148</ele>
      </trkpt>
      <trkpt lat="46.8704" lon="-0.79655">
        <ele>148.8</ele>
      </trkpt>
      <trkpt lat="46.86994" lon="-0.79631">
        <ele>149.8</ele>
      </trkpt>
      <trkpt lat="46.86967" lon="-0.79611">
        <ele>149.8</ele>
      </trkpt>
      <trkpt lat="46.86934" lon="-0.79574">
        <ele>148.9</ele>
      </trkpt>
      <trkpt lat="46.8691" lon="-0.79546">
        <ele>148.8</ele>
      </trkpt>
      <trkpt lat="46.86892" lon="-0.79513">
        <ele>148.2</ele>
      </trkpt>
      <trkpt lat="46.86865" lon="-0.79463">
        <ele>148.1</ele>
      </trkpt>
      <trkpt lat="46.86841" lon="-0.79419">
        <ele>149</ele>
        <time>2023-11-29T23:17:24Z</time>
      </trkpt>
      <trkpt lat="46.86795" lon="-0.79486">
        <ele>149</ele>
        <time>2023-11-29T23:17:35Z</time>
      </trkpt>
      <trkpt lat="46.86743" lon="-0.79583">
        <ele>148</ele>
        <time>2023-11-29T23:17:50Z</time>
      </trkpt>
      <trkpt lat="46.86705" lon="-0.79689">
        <ele>146</ele>
        <time>2023-11-29T23:18:05Z</time>
      </trkpt>
      <trkpt lat="46.86696" lon="-0.79722">
        <ele>146</ele>
        <time>2023-11-29T23:18:09Z</time>
      </trkpt>
      <trkpt lat="46.86671" lon="-0.79873">
        <ele>144</ele>
        <time>2023-11-29T23:18:28Z</time>
      </trkpt>
      <trkpt lat="46.86663" lon="-0.79907">
        <ele>144</ele>
        <time>2023-11-29T23:18:32Z</time>
      </trkpt>
      <trkpt lat="46.8665" lon="-0.79946">
        <ele>143</ele>
        <time>2023-11-29T23:18:38Z</time>
      </trkpt>
      <trkpt lat="46.86613" lon="-0.80035">
        <ele>141</ele>
        <time>2023-11-29T23:18:50Z</time>
      </trkpt>
      <trkpt lat="46.86605" lon="-0.8005">
        <ele>140</ele>
        <time>2023-11-29T23:18:53Z</time>
      </trkpt>
      <trkpt lat="46.86596" lon="-0.80063">
        <ele>140</ele>
        <time>2023-11-29T23:18:55Z</time>
      </trkpt>
      <trkpt lat="46.86579" lon="-0.80082">
        <ele>139</ele>
        <time>2023-11-29T23:18:59Z</time>
      </trkpt>
      <trkpt lat="46.86531" lon="-0.80123">
        <ele>138</ele>
        <time>2023-11-29T23:19:08Z</time>
      </trkpt>
      <trkpt lat="46.86347" lon="-0.80282">
        <ele>141</ele>
        <time>2023-11-29T23:19:47Z</time>
      </trkpt>
      <trkpt lat="46.86268" lon="-0.80335">
        <ele>141</ele>
        <time>2023-11-29T23:20:02Z</time>
      </trkpt>
      <trkpt lat="46.86247" lon="-0.80353">
        <ele>141</ele>
        <time>2023-11-29T23:20:06Z</time>
      </trkpt>
      <trkpt lat="46.86173" lon="-0.80428">
        <ele>143</ele>
        <time>2023-11-29T23:20:22Z</time>
      </trkpt>
      <trkpt lat="46.86143" lon="-0.8046">
        <ele>146</ele>
        <time>2023-11-29T23:20:29Z</time>
      </trkpt>
      <trkpt lat="46.86119" lon="-0.80491">
        <ele>147</ele>
        <time>2023-11-29T23:20:35Z</time>
      </trkpt>
      <trkpt lat="46.86072" lon="-0.80554">
        <ele>148</ele>
        <time>2023-11-29T23:20:46Z</time>
      </trkpt>
      <trkpt lat="46.86045" lon="-0.806">
        <ele>149</ele>
        <time>2023-11-29T23:20:53Z</time>
      </trkpt>
      <trkpt lat="46.85997" lon="-0.80702">
        <ele>150</ele>
        <time>2023-11-29T23:21:08Z</time>
      </trkpt>
      <trkpt lat="46.85911" lon="-0.8092">
        <ele>154</ele>
        <time>2023-11-29T23:21:39Z</time>
      </trkpt>
      <trkpt lat="46.85894" lon="-0.80956">
        <ele>153</ele>
        <time>2023-11-29T23:21:44Z</time>
      </trkpt>
      <trkpt lat="46.85876" lon="-0.80988">
        <ele>153</ele>
        <time>2023-11-29T23:21:49Z</time>
      </trkpt>
      <trkpt lat="46.85857" lon="-0.81018">
        <ele>153</ele>
        <time>2023-11-29T23:21:54Z</time>
      </trkpt>
      <trkpt lat="46.85763" lon="-0.81142">
        <ele>153</ele>
        <time>2023-11-29T23:22:17Z</time>
      </trkpt>
      <trkpt lat="46.85733" lon="-0.81176">
        <ele>153</ele>
        <time>2023-11-29T23:22:24Z</time>
      </trkpt>
      <trkpt lat="46.85697" lon="-0.81208">
        <ele>152</ele>
        <time>2023-11-29T23:22:31Z</time>
      </trkpt>
      <trkpt lat="46.85581" lon="-0.81298">
        <ele>152</ele>
        <time>2023-11-29T23:22:55Z</time>
      </trkpt>
      <trkpt lat="46.85512" lon="-0.8137">
        <ele>154</ele>
        <time>2023-11-29T23:23:10Z</time>
      </trkpt>
      <trkpt lat="46.8545" lon="-0.81442">
        <ele>156</ele>
        <time>2023-11-29T23:23:24Z</time>
      </trkpt>
      <trkpt lat="46.85384" lon="-0.8151">
        <ele>156</ele>
        <time>2023-11-29T23:23:38Z</time>
      </trkpt>
      <trkpt lat="46.85368" lon="-0.81531">
        <ele>156</ele>
        <time>2023-11-29T23:23:42Z</time>
      </trkpt>
      <trkpt lat="46.85356" lon="-0.81551">
        <ele>157</ele>
        <time>2023-11-29T23:23:45Z</time>
      </trkpt>
      <trkpt lat="46.85343" lon="-0.81586">
        <ele>157</ele>
        <time>2023-11-29T23:23:50Z</time>
      </trkpt>
      <trkpt lat="46.85312" lon="-0.81707">
        <ele>158</ele>
        <time>2023-11-29T23:24:06Z</time>
      </trkpt>
      <trkpt lat="46.85282" lon="-0.8182">
        <ele>158</ele>
        <time>2023-11-29T23:24:20Z</time>
      </trkpt>
      <trkpt lat="46.85278" lon="-0.81842">
        <ele>158</ele>
        <time>2023-11-29T23:24:23Z</time>
      </trkpt>
      <trkpt lat="46.85276" lon="-0.81866">
        <ele>158</ele>
        <time>2023-11-29T23:24:26Z</time>
      </trkpt>
      <trkpt lat="46.85277" lon="-0.81944">
        <ele>158</ele>
        <time>2023-11-29T23:24:36Z</time>
      </trkpt>
      <trkpt lat="46.85273" lon="-0.81973">
        <ele>158</ele>
        <time>2023-11-29T23:24:39Z</time>
      </trkpt>
      <trkpt lat="46.85249" lon="-0.82048">
        <ele>153</ele>
        <time>2023-11-29T23:24:49Z</time>
      </trkpt>
      <trkpt lat="46.85244" lon="-0.82062">
        <ele>153</ele>
        <time>2023-11-29T23:24:51Z</time>
      </trkpt>
      <trkpt lat="46.85153" lon="-0.82235">
        <ele>151</ele>
        <time>2023-11-29T23:25:18Z</time>
      </trkpt>
      <trkpt lat="46.85067" lon="-0.82392">
        <ele>153</ele>
        <time>2023-11-29T23:25:42Z</time>
      </trkpt>
      <trkpt lat="46.85044" lon="-0.82436">
        <ele>153</ele>
        <time>2023-11-29T23:25:49Z</time>
      </trkpt>
      <trkpt lat="46.85035" lon="-0.82447">
        <ele>153</ele>
        <time>2023-11-29T23:25:51Z</time>
      </trkpt>
      <trkpt lat="46.85039" lon="-0.8245">
        <ele>154</ele>
        <time>2023-11-29T23:25:52Z</time>
      </trkpt>
      <trkpt lat="46.85042" lon="-0.82461">
        <ele>154</ele>
        <time>2023-11-29T23:25:53Z</time>
      </trkpt>
      <trkpt lat="46.85041" lon="-0.82472">
        <ele>154</ele>
        <time>2023-11-29T23:25:55Z</time>
      </trkpt>
      <trkpt lat="46.85036" lon="-0.8248">
        <ele>154</ele>
        <time>2023-11-29T23:25:56Z</time>
      </trkpt>
      <trkpt lat="46.85032" lon="-0.82482">
        <ele>154</ele>
        <time>2023-11-29T23:25:57Z</time>
      </trkpt>
      <trkpt lat="46.85025" lon="-0.82481">
        <ele>154</ele>
        <time>2023-11-29T23:25:58Z</time>
      </trkpt>
      <trkpt lat="46.85021" lon="-0.82478">
        <ele>153</ele>
        <time>2023-11-29T23:25:59Z</time>
      </trkpt>
      <trkpt lat="46.84967" lon="-0.82581">
        <ele>154</ele>
        <time>2023-11-29T23:26:15Z</time>
      </trkpt>
      <trkpt lat="46.84942" lon="-0.82642">
        <ele>154</ele>
        <time>2023-11-29T23:26:23Z</time>
      </trkpt>
      <trkpt lat="46.84899" lon="-0.82786">
        <ele>155</ele>
        <time>2023-11-29T23:26:42Z</time>
      </trkpt>
      <trkpt lat="46.84872" lon="-0.8292">
        <ele>156</ele>
        <time>2023-11-29T23:26:59Z</time>
      </trkpt>
      <trkpt lat="46.84847" lon="-0.83">
        <ele>156</ele>
        <time>2023-11-29T23:27:10Z</time>
      </trkpt>
      <trkpt lat="46.8484" lon="-0.83033">
        <ele>157</ele>
        <time>2023-11-29T23:27:14Z</time>
      </trkpt>
      <trkpt lat="46.84838" lon="-0.83068">
        <ele>157</ele>
        <time>2023-11-29T23:27:19Z</time>
      </trkpt>
      <trkpt lat="46.84839" lon="-0.83137">
        <ele>159</ele>
        <time>2023-11-29T23:27:27Z</time>
      </trkpt>
      <trkpt lat="46.84838" lon="-0.83182">
        <ele>160</ele>
        <time>2023-11-29T23:27:32Z</time>
      </trkpt>
      <trkpt lat="46.84835" lon="-0.832">
        <ele>160</ele>
        <time>2023-11-29T23:27:35Z</time>
      </trkpt>
      <trkpt lat="46.84826" lon="-0.83226">
        <ele>160</ele>
        <time>2023-11-29T23:27:38Z</time>
      </trkpt>
      <trkpt lat="46.84813" lon="-0.83241">
        <ele>160</ele>
        <time>2023-11-29T23:27:41Z</time>
      </trkpt>
      <trkpt lat="46.84782" lon="-0.83262">
        <ele>161</ele>
        <time>2023-11-29T23:27:47Z</time>
      </trkpt>
      <trkpt lat="46.84746" lon="-0.83284">
        <ele>161</ele>
        <time>2023-11-29T23:27:54Z</time>
      </trkpt>
      <trkpt lat="46.84701" lon="-0.83306">
        <ele>166</ele>
        <time>2023-11-29T23:28:03Z</time>
      </trkpt>
      <trkpt lat="46.84692" lon="-0.83315">
        <ele>167</ele>
        <time>2023-11-29T23:28:05Z</time>
      </trkpt>
      <trkpt lat="46.84671" lon="-0.83351">
        <ele>168</ele>
        <time>2023-11-29T23:28:10Z</time>
      </trkpt>
      <trkpt lat="46.84653" lon="-0.83372">
        <ele>169</ele>
        <time>2023-11-29T23:28:14Z</time>
      </trkpt>
      <trkpt lat="46.84642" lon="-0.8338">
        <ele>169</ele>
        <time>2023-11-29T23:28:17Z</time>
      </trkpt>
      <trkpt lat="46.8459" lon="-0.8341">
        <ele>170</ele>
        <time>2023-11-29T23:28:27Z</time>
      </trkpt>
      <trkpt lat="46.84586" lon="-0.83415">
        <ele>170</ele>
        <time>2023-11-29T23:28:28Z</time>
      </trkpt>
      <trkpt lat="46.84582" lon="-0.83425">
        <ele>170</ele>
        <time>2023-11-29T23:28:29Z</time>
      </trkpt>
      <trkpt lat="46.84582" lon="-0.83432">
        <ele>170</ele>
        <time>2023-11-29T23:28:30Z</time>
      </trkpt>
      <trkpt lat="46.84585" lon="-0.8344">
        <ele>169</ele>
        <time>2023-11-29T23:28:31Z</time>
      </trkpt>
      <trkpt lat="46.84607" lon="-0.83485">
        <ele>168</ele>
        <time>2023-11-29T23:28:38Z</time>
      </trkpt>
      <trkpt lat="46.84618" lon="-0.83532">
        <ele>168</ele>
        <time>2023-11-29T23:28:44Z</time>
      </trkpt>
      <trkpt lat="46.84619" lon="-0.83545">
        <ele>169</ele>
        <time>2023-11-29T23:28:45Z</time>
      </trkpt>
      <trkpt lat="46.84618" lon="-0.8356">
        <ele>169</ele>
        <time>2023-11-29T23:28:47Z</time>
      </trkpt>
      <trkpt lat="46.84625" lon="-0.83567">
        <ele>169</ele>
        <time>2023-11-29T23:28:49Z</time>
      </trkpt>
      <trkpt lat="46.84702" lon="-0.83744">
        <ele>180</ele>
        <time>2023-11-29T23:29:14Z</time>
      </trkpt>
      <trkpt lat="46.84732" lon="-0.83873">
        <ele>181</ele>
        <time>2023-11-29T23:29:31Z</time>
      </trkpt>
      <trkpt lat="46.84771" lon="-0.83975">
        <ele>183</ele>
        <time>2023-11-29T23:29:45Z</time>
      </trkpt>
      <trkpt lat="46.84804" lon="-0.84052">
        <ele>185</ele>
        <time>2023-11-29T23:29:56Z</time>
      </trkpt>
      <trkpt lat="46.8481" lon="-0.84069">
        <ele>185</ele>
        <time>2023-11-29T23:29:58Z</time>
      </trkpt>
      <trkpt lat="46.84826" lon="-0.84102">
        <ele>185</ele>
        <time>2023-11-29T23:30:03Z</time>
      </trkpt>
      <trkpt lat="46.84854" lon="-0.84134">
        <ele>186</ele>
        <time>2023-11-29T23:30:10Z</time>
      </trkpt>
      <trkpt lat="46.84928" lon="-0.84203">
        <ele>188</ele>
        <time>2023-11-29T23:30:25Z</time>
      </trkpt>
      <trkpt lat="46.85038" lon="-0.84298">
        <ele>191</ele>
        <time>2023-11-29T23:30:48Z</time>
      </trkpt>
      <trkpt lat="46.85085" lon="-0.84335">
        <ele>192</ele>
        <time>2023-11-29T23:30:57Z</time>
      </trkpt>
      <trkpt lat="46.85162" lon="-0.84412">
        <ele>196</ele>
        <time>2023-11-29T23:31:14Z</time>
      </trkpt>
      <trkpt lat="46.8518" lon="-0.84442">
        <ele>196</ele>
        <time>2023-11-29T23:31:19Z</time>
      </trkpt>
      <trkpt lat="46.85202" lon="-0.84498">
        <ele>196</ele>
        <time>2023-11-29T23:31:27Z</time>
      </trkpt>
      <trkpt lat="46.85208" lon="-0.84517">
        <ele>196</ele>
        <time>2023-11-29T23:31:29Z</time>
      </trkpt>
      <trkpt lat="46.85211" lon="-0.8454">
        <ele>195</ele>
        <time>2023-11-29T23:31:32Z</time>
      </trkpt>
      <trkpt lat="46.8521" lon="-0.8475">
        <ele>198</ele>
        <time>2023-11-29T23:31:58Z</time>
      </trkpt>
      <trkpt lat="46.8521" lon="-0.84816">
        <ele>196</ele>
        <time>2023-11-29T23:32:06Z</time>
      </trkpt>
      <trkpt lat="46.85203" lon="-0.84862">
        <ele>196</ele>
        <time>2023-11-29T23:32:11Z</time>
      </trkpt>
      <trkpt lat="46.85166" lon="-0.84983">
        <ele>197</ele>
        <time>2023-11-29T23:32:28Z</time>
      </trkpt>
      <trkpt lat="46.85164" lon="-0.85008">
        <ele>197</ele>
        <time>2023-11-29T23:32:31Z</time>
      </trkpt>
      <trkpt lat="46.85167" lon="-0.85203">
        <ele>200</ele>
        <time>2023-11-29T23:32:54Z</time>
      </trkpt>
      <trkpt lat="46.85175" lon="-0.85251">
        <ele>202</ele>
        <time>2023-11-29T23:33:00Z</time>
      </trkpt>
      <trkpt lat="46.85201" lon="-0.85362">
        <ele>202</ele>
        <time>2023-11-29T23:33:15Z</time>
      </trkpt>
      <trkpt lat="46.8522" lon="-0.8542">
        <ele>203</ele>
        <time>2023-11-29T23:33:22Z</time>
      </trkpt>
      <trkpt lat="46.85384" lon="-0.85831">
        <ele>219</ele>
        <time>2023-11-29T23:34:20Z</time>
      </trkpt>
      <trkpt lat="46.85402" lon="-0.85888">
        <ele>221</ele>
        <time>2023-11-29T23:34:28Z</time>
      </trkpt>
      <trkpt lat="46.85411" lon="-0.85927">
        <ele>222</ele>
        <time>2023-11-29T23:34:33Z</time>
      </trkpt>
      <trkpt lat="46.8546" lon="-0.86194">
        <ele>225</ele>
        <time>2023-11-29T23:35:07Z</time>
      </trkpt>
      <trkpt lat="46.85475" lon="-0.86287">
        <ele>227</ele>
        <time>2023-11-29T23:35:18Z</time>
      </trkpt>
      <trkpt lat="46.8548" lon="-0.86333">
        <ele>229</ele>
        <time>2023-11-29T23:35:24Z</time>
      </trkpt>
      <trkpt lat="46.85483" lon="-0.86411">
        <ele>232</ele>
        <time>2023-11-29T23:35:33Z</time>
      </trkpt>
      <trkpt lat="46.85472" lon="-0.86632">
        <ele>236</ele>
        <time>2023-11-29T23:36:00Z</time>
      </trkpt>
      <trkpt lat="46.85472" lon="-0.86681">
        <ele>237</ele>
        <time>2023-11-29T23:36:06Z</time>
      </trkpt>
      <trkpt lat="46.85479" lon="-0.86788">
        <ele>239</ele>
        <time>2023-11-29T23:36:19Z</time>
      </trkpt>
      <trkpt lat="46.8548" lon="-0.86817">
        <ele>240</ele>
        <time>2023-11-29T23:36:23Z</time>
      </trkpt>
      <trkpt lat="46.85443" lon="-0.87199">
        <ele>247</ele>
        <time>2023-11-29T23:37:10Z</time>
      </trkpt>
      <trkpt lat="46.85424" lon="-0.87405">
        <ele>252</ele>
        <time>2023-11-29T23:37:35Z</time>
      </trkpt>
      <trkpt lat="46.85425" lon="-0.87559">
        <ele>253</ele>
        <time>2023-11-29T23:37:54Z</time>
      </trkpt>
      <trkpt lat="46.85433" lon="-0.87636">
        <ele>255</ele>
        <time>2023-11-29T23:38:03Z</time>
      </trkpt>
      <trkpt lat="46.85427" lon="-0.87966">
        <ele>259</ele>
        <time>2023-11-29T23:38:44Z</time>
      </trkpt>
      <trkpt lat="46.85428" lon="-0.88037">
        <ele>257</ele>
        <time>2023-11-29T23:38:52Z</time>
      </trkpt>
      <trkpt lat="46.85431" lon="-0.88087">
        <ele>256</ele>
        <time>2023-11-29T23:38:58Z</time>
      </trkpt>
      <trkpt lat="46.85442" lon="-0.88141">
        <ele>255</ele>
        <time>2023-11-29T23:39:05Z</time>
      </trkpt>
      <trkpt lat="46.85454" lon="-0.8818">
        <ele>254</ele>
        <time>2023-11-29T23:39:10Z</time>
      </trkpt>
      <trkpt lat="46.8547" lon="-0.88251">
        <ele>252</ele>
        <time>2023-11-29T23:39:20Z</time>
      </trkpt>
      <trkpt lat="46.85491" lon="-0.88384">
        <ele>248</ele>
        <time>2023-11-29T23:39:36Z</time>
      </trkpt>
      <trkpt lat="46.85493" lon="-0.88417">
        <ele>248</ele>
        <time>2023-11-29T23:39:40Z</time>
      </trkpt>
      <trkpt lat="46.85492" lon="-0.88506">
        <ele>245</ele>
        <time>2023-11-29T23:39:51Z</time>
      </trkpt>
      <trkpt lat="46.85494" lon="-0.88702">
        <ele>239</ele>
        <time>2023-11-29T23:40:15Z</time>
      </trkpt>
      <trkpt lat="46.855" lon="-0.88745">
        <ele>237</ele>
        <time>2023-11-29T23:40:20Z</time>
      </trkpt>
      <trkpt lat="46.85512" lon="-0.88788">
        <ele>236</ele>
        <time>2023-11-29T23:40:26Z</time>
      </trkpt>
      <trkpt lat="46.85523" lon="-0.88819">
        <ele>236</ele>
        <time>2023-11-29T23:40:30Z</time>
      </trkpt>
      <trkpt lat="46.85588" lon="-0.88935">
        <ele>232</ele>
        <time>2023-11-29T23:40:48Z</time>
      </trkpt>
      <trkpt lat="46.85614" lon="-0.89018">
        <ele>231</ele>
        <time>2023-11-29T23:40:59Z</time>
      </trkpt>
      <trkpt lat="46.85605" lon="-0.89028">
        <ele>232</ele>
        <time>2023-11-29T23:41:01Z</time>
      </trkpt>
      <trkpt lat="46.85592" lon="-0.89032">
        <ele>232</ele>
        <time>2023-11-29T23:41:04Z</time>
      </trkpt>
      <trkpt lat="46.85539" lon="-0.89023">
        <ele>232</ele>
        <time>2023-11-29T23:41:13Z</time>
      </trkpt>
      <trkpt lat="46.85507" lon="-0.89022">
        <ele>233</ele>
        <time>2023-11-29T23:41:19Z</time>
      </trkpt>
      <trkpt lat="46.85467" lon="-0.89038">
        <ele>232</ele>
        <time>2023-11-29T23:41:26Z</time>
      </trkpt>
      <trkpt lat="46.85441" lon="-0.89042">
        <ele>231</ele>
        <time>2023-11-29T23:41:31Z</time>
      </trkpt>
      <trkpt lat="46.85443" lon="-0.89128">
        <ele>230</ele>
        <time>2023-11-29T23:41:41Z</time>
      </trkpt>
      <trkpt lat="46.85442" lon="-0.89171">
        <ele>230</ele>
        <time>2023-11-29T23:41:47Z</time>
      </trkpt>
      <trkpt lat="46.85436" lon="-0.89195">
        <ele>229</ele>
        <time>2023-11-29T23:41:50Z</time>
      </trkpt>
      <trkpt lat="46.85425" lon="-0.89225">
        <ele>227</ele>
        <time>2023-11-29T23:41:54Z</time>
      </trkpt>
      <trkpt lat="46.85412" lon="-0.89252">
        <ele>225</ele>
        <time>2023-11-29T23:41:58Z</time>
      </trkpt>
      <trkpt lat="46.85409" lon="-0.89278">
        <ele>223</ele>
        <time>2023-11-29T23:42:01Z</time>
      </trkpt>
      <trkpt lat="46.85411" lon="-0.89295">
        <ele>221</ele>
        <time>2023-11-29T23:42:03Z</time>
      </trkpt>
      <trkpt lat="46.85417" lon="-0.89313">
        <ele>221</ele>
        <time>2023-11-29T23:42:06Z</time>
      </trkpt>
      <trkpt lat="46.85446" lon="-0.89344">
        <ele>221</ele>
        <time>2023-11-29T23:42:12Z</time>
      </trkpt>
      <trkpt lat="46.85494" lon="-0.89392">
        <ele>221</ele>
        <time>2023-11-29T23:42:22Z</time>
      </trkpt>
      <trkpt lat="46.85502" lon="-0.89405">
        <ele>221</ele>
        <time>2023-11-29T23:42:25Z</time>
      </trkpt>
      <trkpt lat="46.85506" lon="-0.89419">
        <ele>221</ele>
        <time>2023-11-29T23:42:26Z</time>
      </trkpt>
      <trkpt lat="46.85508" lon="-0.8944">
        <ele>219</ele>
        <time>2023-11-29T23:42:29Z</time>
      </trkpt>
      <trkpt lat="46.85495" lon="-0.89736">
        <ele>220</ele>
        <time>2023-11-29T23:43:05Z</time>
      </trkpt>
      <trkpt lat="46.85491" lon="-0.89767">
        <ele>219</ele>
        <time>2023-11-29T23:43:09Z</time>
      </trkpt>
      <trkpt lat="46.85485" lon="-0.89798">
        <ele>218</ele>
        <time>2023-11-29T23:43:13Z</time>
      </trkpt>
      <trkpt lat="46.85458" lon="-0.89882">
        <ele>213</ele>
        <time>2023-11-29T23:43:24Z</time>
      </trkpt>
      <trkpt lat="46.85333" lon="-0.90163">
        <ele>190</ele>
        <time>2023-11-29T23:44:05Z</time>
      </trkpt>
      <trkpt lat="46.85324" lon="-0.90187">
        <ele>191</ele>
        <time>2023-11-29T23:44:08Z</time>
      </trkpt>
      <trkpt lat="46.85314" lon="-0.9021">
        <ele>192</ele>
        <time>2023-11-29T23:44:12Z</time>
      </trkpt>
      <trkpt lat="46.85294" lon="-0.90241">
        <ele>192</ele>
        <time>2023-11-29T23:44:17Z</time>
      </trkpt>
      <trkpt lat="46.85268" lon="-0.90259">
        <ele>192</ele>
        <time>2023-11-29T23:44:22Z</time>
      </trkpt>
      <trkpt lat="46.85251" lon="-0.90266">
        <ele>192</ele>
        <time>2023-11-29T23:44:25Z</time>
      </trkpt>
      <trkpt lat="46.85227" lon="-0.9027">
        <ele>191</ele>
        <time>2023-11-29T23:44:29Z</time>
      </trkpt>
      <trkpt lat="46.85224" lon="-0.9028">
        <ele>191</ele>
        <time>2023-11-29T23:44:31Z</time>
      </trkpt>
      <trkpt lat="46.85203" lon="-0.90308">
        <ele>190</ele>
        <time>2023-11-29T23:44:36Z</time>
      </trkpt>
      <trkpt lat="46.85198" lon="-0.90325">
        <ele>189</ele>
        <time>2023-11-29T23:44:38Z</time>
      </trkpt>
      <trkpt lat="46.85199" lon="-0.90364">
        <ele>189</ele>
        <time>2023-11-29T23:44:43Z</time>
      </trkpt>
      <trkpt lat="46.85203" lon="-0.9044">
        <ele>188</ele>
        <time>2023-11-29T23:44:52Z</time>
      </trkpt>
      <trkpt lat="46.8521" lon="-0.90468">
        <ele>187</ele>
        <time>2023-11-29T23:44:56Z</time>
      </trkpt>
      <trkpt lat="46.85226" lon="-0.90516">
        <ele>185</ele>
        <time>2023-11-29T23:45:02Z</time>
      </trkpt>
      <trkpt lat="46.85239" lon="-0.90576">
        <ele>180</ele>
        <time>2023-11-29T23:45:10Z</time>
      </trkpt>
      <trkpt lat="46.85251" lon="-0.9065">
        <ele>177</ele>
        <time>2023-11-29T23:45:19Z</time>
      </trkpt>
      <trkpt lat="46.85264" lon="-0.90708">
        <ele>178</ele>
        <time>2023-11-29T23:45:26Z</time>
      </trkpt>
      <trkpt lat="46.85322" lon="-0.90904">
        <ele>175</ele>
        <time>2023-11-29T23:45:52Z</time>
      </trkpt>
      <trkpt lat="46.85344" lon="-0.90964">
        <ele>174</ele>
        <time>2023-11-29T23:46:01Z</time>
      </trkpt>
      <trkpt lat="46.8537" lon="-0.91026">
        <ele>174</ele>
        <time>2023-11-29T23:46:10Z</time>
      </trkpt>
      <trkpt lat="46.85489" lon="-0.91264">
        <ele>171</ele>
        <time>2023-11-29T23:46:45Z</time>
      </trkpt>
      <trkpt lat="46.85513" lon="-0.91308">
        <ele>168</ele>
        <time>2023-11-29T23:46:52Z</time>
      </trkpt>
      <trkpt lat="46.8554" lon="-0.91329">
        <ele>167</ele>
        <time>2023-11-29T23:46:58Z</time>
      </trkpt>
      <trkpt lat="46.85596" lon="-0.91361">
        <ele>169</ele>
        <time>2023-11-29T23:47:08Z</time>
      </trkpt>
      <trkpt lat="46.85634" lon="-0.91386">
        <ele>169</ele>
        <time>2023-11-29T23:47:16Z</time>
      </trkpt>
      <trkpt lat="46.85653" lon="-0.91407">
        <ele>169</ele>
        <time>2023-11-29T23:47:20Z</time>
      </trkpt>
      <trkpt lat="46.85704" lon="-0.91487">
        <ele>172</ele>
        <time>2023-11-29T23:47:33Z</time>
      </trkpt>
      <trkpt lat="46.8573" lon="-0.91516">
        <ele>172</ele>
        <time>2023-11-29T23:47:39Z</time>
      </trkpt>
      <trkpt lat="46.85804" lon="-0.91583">
        <ele>167</ele>
        <time>2023-11-29T23:47:55Z</time>
      </trkpt>
      <trkpt lat="46.85828" lon="-0.91609">
        <ele>165</ele>
        <time>2023-11-29T23:48:00Z</time>
      </trkpt>
      <trkpt lat="46.85837" lon="-0.91623">
        <ele>164</ele>
        <time>2023-11-29T23:48:02Z</time>
      </trkpt>
      <trkpt lat="46.85933" lon="-0.91795">
        <ele>153</ele>
        <time>2023-11-29T23:48:29Z</time>
      </trkpt>
      <trkpt lat="46.85974" lon="-0.91865">
        <ele>150</ele>
        <time>2023-11-29T23:48:41Z</time>
      </trkpt>
      <trkpt lat="46.86002" lon="-0.91933">
        <ele>148</ele>
        <time>2023-11-29T23:48:50Z</time>
      </trkpt>
      <trkpt lat="46.86022" lon="-0.91968">
        <ele>147</ele>
        <time>2023-11-29T23:48:56Z</time>
      </trkpt>
      <trkpt lat="46.86064" lon="-0.92032">
        <ele>147</ele>
        <time>2023-11-29T23:49:07Z</time>
      </trkpt>
      <trkpt lat="46.86081" lon="-0.92058">
        <ele>146</ele>
        <time>2023-11-29T23:49:11Z</time>
      </trkpt>
      <trkpt lat="46.86097" lon="-0.92088">
        <ele>146</ele>
        <time>2023-11-29T23:49:16Z</time>
      </trkpt>
      <trkpt lat="46.86138" lon="-0.92199">
        <ele>143</ele>
        <time>2023-11-29T23:49:31Z</time>
      </trkpt>
      <trkpt lat="46.86145" lon="-0.92257">
        <ele>142</ele>
        <time>2023-11-29T23:49:38Z</time>
      </trkpt>
      <trkpt lat="46.8615" lon="-0.9228">
        <ele>142</ele>
        <time>2023-11-29T23:49:41Z</time>
      </trkpt>
      <trkpt lat="46.86155" lon="-0.92294">
        <ele>142</ele>
        <time>2023-11-29T23:49:43Z</time>
      </trkpt>
      <trkpt lat="46.86208" lon="-0.92368">
        <ele>142</ele>
        <time>2023-11-29T23:49:56Z</time>
      </trkpt>
      <trkpt lat="46.86216" lon="-0.92385">
        <ele>143</ele>
        <time>2023-11-29T23:49:59Z</time>
      </trkpt>
      <trkpt lat="46.86228" lon="-0.92425">
        <ele>143</ele>
        <time>2023-11-29T23:50:04Z</time>
      </trkpt>
      <trkpt lat="46.86213" lon="-0.92434">
        <ele>143</ele>
        <time>2023-11-29T23:50:07Z</time>
      </trkpt>
      <trkpt lat="46.86175" lon="-0.92462">
        <ele>143</ele>
        <time>2023-11-29T23:50:14Z</time>
      </trkpt>
      <trkpt lat="46.86109" lon="-0.92567">
        <ele>141</ele>
        <time>2023-11-29T23:50:32Z</time>
      </trkpt>
      <trkpt lat="46.86089" lon="-0.92588">
        <ele>140</ele>
        <time>2023-11-29T23:50:36Z</time>
      </trkpt>
      <trkpt lat="46.86081" lon="-0.92604">
        <ele>139</ele>
        <time>2023-11-29T23:50:38Z</time>
      </trkpt>
      <trkpt lat="46.86067" lon="-0.92646">
        <ele>137</ele>
        <time>2023-11-29T23:50:44Z</time>
      </trkpt>
      <trkpt lat="46.86052" lon="-0.92705">
        <ele>133</ele>
        <time>2023-11-29T23:50:52Z</time>
      </trkpt>
      <trkpt lat="46.86043" lon="-0.92723">
        <ele>132</ele>
        <time>2023-11-29T23:50:54Z</time>
      </trkpt>
      <trkpt lat="46.86033" lon="-0.92739">
        <ele>132</ele>
        <time>2023-11-29T23:50:57Z</time>
      </trkpt>
      <trkpt lat="46.86014" lon="-0.92759">
        <ele>131</ele>
        <time>2023-11-29T23:51:01Z</time>
      </trkpt>
      <trkpt lat="46.86002" lon="-0.92768">
        <ele>132</ele>
        <time>2023-11-29T23:51:04Z</time>
      </trkpt>
      <trkpt lat="46.85979" lon="-0.92779">
        <ele>132</ele>
        <time>2023-11-29T23:51:08Z</time>
      </trkpt>
      <trkpt lat="46.85961" lon="-0.92781">
        <ele>133</ele>
        <time>2023-11-29T23:51:11Z</time>
      </trkpt>
      <trkpt lat="46.85949" lon="-0.9278">
        <ele>133</ele>
        <time>2023-11-29T23:51:13Z</time>
      </trkpt>
      <trkpt lat="46.85927" lon="-0.92767">
        <ele>134</ele>
        <time>2023-11-29T23:51:18Z</time>
      </trkpt>
      <trkpt lat="46.85897" lon="-0.92745">
        <ele>136</ele>
        <time>2023-11-29T23:51:24Z</time>
      </trkpt>
      <trkpt lat="46.85864" lon="-0.92726">
        <ele>140</ele>
        <time>2023-11-29T23:51:30Z</time>
      </trkpt>
      <trkpt lat="46.85835" lon="-0.92717">
        <ele>142</ele>
        <time>2023-11-29T23:51:35Z</time>
      </trkpt>
      <trkpt lat="46.85808" lon="-0.92718">
        <ele>143</ele>
        <time>2023-11-29T23:51:40Z</time>
      </trkpt>
      <trkpt lat="46.85798" lon="-0.92721">
        <ele>143</ele>
        <time>2023-11-29T23:51:42Z</time>
      </trkpt>
      <trkpt lat="46.85778" lon="-0.92735">
        <ele>143</ele>
        <time>2023-11-29T23:51:46Z</time>
      </trkpt>
      <trkpt lat="46.85749" lon="-0.92774">
        <ele>144</ele>
        <time>2023-11-29T23:51:53Z</time>
      </trkpt>
      <trkpt lat="46.85734" lon="-0.92789">
        <ele>145</ele>
        <time>2023-11-29T23:51:56Z</time>
      </trkpt>
      <trkpt lat="46.85708" lon="-0.9281">
        <ele>146</ele>
        <time>2023-11-29T23:52:01Z</time>
      </trkpt>
      <trkpt lat="46.85685" lon="-0.92823">
        <ele>146</ele>
        <time>2023-11-29T23:52:06Z</time>
      </trkpt>
      <trkpt lat="46.85669" lon="-0.9283">
        <ele>147</ele>
        <time>2023-11-29T23:52:09Z</time>
      </trkpt>
      <trkpt lat="46.85588" lon="-0.92856">
        <ele>154</ele>
        <time>2023-11-29T23:52:23Z</time>
      </trkpt>
      <trkpt lat="46.85562" lon="-0.92872">
        <ele>155</ele>
        <time>2023-11-29T23:52:28Z</time>
      </trkpt>
      <trkpt lat="46.85528" lon="-0.92904">
        <ele>157</ele>
        <time>2023-11-29T23:52:36Z</time>
      </trkpt>
      <trkpt lat="46.85506" lon="-0.9293">
        <ele>158</ele>
        <time>2023-11-29T23:52:41Z</time>
      </trkpt>
      <trkpt lat="46.85495" lon="-0.92946">
        <ele>158</ele>
        <time>2023-11-29T23:52:43Z</time>
      </trkpt>
      <trkpt lat="46.85454" lon="-0.93027">
        <ele>158</ele>
        <time>2023-11-29T23:52:56Z</time>
      </trkpt>
      <trkpt lat="46.85425" lon="-0.93075">
        <ele>155</ele>
        <time>2023-11-29T23:53:03Z</time>
      </trkpt>
      <trkpt lat="46.85405" lon="-0.93097">
        <ele>155</ele>
        <time>2023-11-29T23:53:08Z</time>
      </trkpt>
      <trkpt lat="46.85373" lon="-0.93124">
        <ele>156</ele>
        <time>2023-11-29T23:53:14Z</time>
      </trkpt>
      <trkpt lat="46.8525" lon="-0.93206">
        <ele>164</ele>
        <time>2023-11-29T23:53:38Z</time>
      </trkpt>
      <trkpt lat="46.85233" lon="-0.93215">
        <ele>165</ele>
        <time>2023-11-29T23:53:42Z</time>
      </trkpt>
      <trkpt lat="46.85218" lon="-0.93221">
        <ele>165</ele>
        <time>2023-11-29T23:53:44Z</time>
      </trkpt>
      <trkpt lat="46.85201" lon="-0.93223">
        <ele>166</ele>
        <time>2023-11-29T23:53:48Z</time>
      </trkpt>
      <trkpt lat="46.85134" lon="-0.93209">
        <ele>168</ele>
        <time>2023-11-29T23:54:00Z</time>
      </trkpt>
      <trkpt lat="46.85113" lon="-0.93202">
        <ele>168</ele>
        <time>2023-11-29T23:54:03Z</time>
      </trkpt>
      <trkpt lat="46.85097" lon="-0.93194">
        <ele>169</ele>
        <time>2023-11-29T23:54:06Z</time>
      </trkpt>
      <trkpt lat="46.85071" lon="-0.93173">
        <ele>169</ele>
        <time>2023-11-29T23:54:12Z</time>
      </trkpt>
      <trkpt lat="46.85052" lon="-0.9316">
        <ele>170</ele>
        <time>2023-11-29T23:54:15Z</time>
      </trkpt>
      <trkpt lat="46.85044" lon="-0.93159">
        <ele>170</ele>
        <time>2023-11-29T23:54:17Z</time>
      </trkpt>
      <trkpt lat="46.85019" lon="-0.93166">
        <ele>169</ele>
        <time>2023-11-29T23:54:21Z</time>
      </trkpt>
      <trkpt lat="46.85005" lon="-0.93161">
        <ele>169</ele>
        <time>2023-11-29T23:54:24Z</time>
      </trkpt>
      <trkpt lat="46.84893" lon="-0.93098">
        <ele>169</ele>
        <time>2023-11-29T23:54:45Z</time>
      </trkpt>
      <trkpt lat="46.84868" lon="-0.93094">
        <ele>169</ele>
        <time>2023-11-29T23:54:50Z</time>
      </trkpt>
      <trkpt lat="46.84795" lon="-0.93101">
        <ele>169</ele>
        <time>2023-11-29T23:55:03Z</time>
      </trkpt>
      <trkpt lat="46.84759" lon="-0.93112">
        <ele>169</ele>
        <time>2023-11-29T23:55:09Z</time>
      </trkpt>
      <trkpt lat="46.84675" lon="-0.93155">
        <ele>168</ele>
        <time>2023-11-29T23:55:25Z</time>
      </trkpt>
      <trkpt lat="46.84591" lon="-0.93209">
        <ele>170</ele>
        <time>2023-11-29T23:55:41Z</time>
      </trkpt>
      <trkpt lat="46.84406" lon="-0.93322">
        <ele>165</ele>
        <time>2023-11-29T23:56:17Z</time>
      </trkpt>
      <trkpt lat="46.84338" lon="-0.93361">
        <ele>165</ele>
        <time>2023-11-29T23:56:30Z</time>
      </trkpt>
      <trkpt lat="46.84319" lon="-0.93367">
        <ele>165</ele>
        <time>2023-11-29T23:56:34Z</time>
      </trkpt>
      <trkpt lat="46.84303" lon="-0.9337">
        <ele>164</ele>
        <time>2023-11-29T23:56:36Z</time>
      </trkpt>
      <trkpt lat="46.84286" lon="-0.9337">
        <ele>164</ele>
        <time>2023-11-29T23:56:39Z</time>
      </trkpt>
      <trkpt lat="46.84139" lon="-0.93343">
        <ele>165</ele>
        <time>2023-11-29T23:57:06Z</time>
      </trkpt>
      <trkpt lat="46.84113" lon="-0.93335">
        <ele>165</ele>
        <time>2023-11-29T23:57:11Z</time>
      </trkpt>
      <trkpt lat="46.84089" lon="-0.93325">
        <ele>164</ele>
        <time>2023-11-29T23:57:15Z</time>
      </trkpt>
      <trkpt lat="46.84027" lon="-0.9329">
        <ele>165</ele>
        <time>2023-11-29T23:57:27Z</time>
      </trkpt>
      <trkpt lat="46.84003" lon="-0.9328">
        <ele>165</ele>
        <time>2023-11-29T23:57:31Z</time>
      </trkpt>
      <trkpt lat="46.83991" lon="-0.93278">
        <ele>165</ele>
        <time>2023-11-29T23:57:33Z</time>
      </trkpt>
      <trkpt lat="46.83978" lon="-0.93278">
        <ele>165</ele>
        <time>2023-11-29T23:57:36Z</time>
      </trkpt>
      <trkpt lat="46.8391" lon="-0.93305">
        <ele>164</ele>
        <time>2023-11-29T23:57:48Z</time>
      </trkpt>
      <trkpt lat="46.83799" lon="-0.93326">
        <ele>164</ele>
        <time>2023-11-29T23:58:08Z</time>
      </trkpt>
      <trkpt lat="46.83764" lon="-0.93326">
        <ele>164</ele>
        <time>2023-11-29T23:58:14Z</time>
      </trkpt>
      <trkpt lat="46.83648" lon="-0.93302">
        <ele>163</ele>
        <time>2023-11-29T23:58:35Z</time>
      </trkpt>
      <trkpt lat="46.83575" lon="-0.93273">
        <ele>160</ele>
        <time>2023-11-29T23:58:49Z</time>
      </trkpt>
      <trkpt lat="46.83557" lon="-0.93266">
        <ele>159</ele>
        <time>2023-11-29T23:58:52Z</time>
      </trkpt>
      <trkpt lat="46.8354" lon="-0.93263">
        <ele>158</ele>
        <time>2023-11-29T23:58:55Z</time>
      </trkpt>
      <trkpt lat="46.83503" lon="-0.93267">
        <ele>157</ele>
        <time>2023-11-29T23:59:02Z</time>
      </trkpt>
      <trkpt lat="46.83449" lon="-0.93279">
        <ele>157</ele>
        <time>2023-11-29T23:59:11Z</time>
      </trkpt>
      <trkpt lat="46.83397" lon="-0.93282">
        <ele>156</ele>
        <time>2023-11-29T23:59:21Z</time>
      </trkpt>
      <trkpt lat="46.83348" lon="-0.93273">
        <ele>154</ele>
        <time>2023-11-29T23:59:29Z</time>
      </trkpt>
      <trkpt lat="46.83305" lon="-0.93284">
        <ele>152</ele>
        <time>2023-11-29T23:59:37Z</time>
      </trkpt>
      <trkpt lat="46.83282" lon="-0.93286">
        <ele>151</ele>
        <time>2023-11-29T23:59:41Z</time>
      </trkpt>
      <trkpt lat="46.83242" lon="-0.93283">
        <ele>149</ele>
        <time>2023-11-29T23:59:48Z</time>
      </trkpt>
      <trkpt lat="46.83" lon="-0.93277">
        <ele>138</ele>
        <time>2023-11-30T00:00:32Z</time>
      </trkpt>
      <trkpt lat="46.82927" lon="-0.93273">
        <ele>135</ele>
        <time>2023-11-30T00:00:45Z</time>
      </trkpt>
      <trkpt lat="46.82912" lon="-0.9327">
        <ele>135</ele>
        <time>2023-11-30T00:00:47Z</time>
      </trkpt>
      <trkpt lat="46.82877" lon="-0.93254">
        <ele>133</ele>
        <time>2023-11-30T00:00:54Z</time>
      </trkpt>
      <trkpt lat="46.82793" lon="-0.93186">
        <ele>134</ele>
        <time>2023-11-30T00:01:11Z</time>
      </trkpt>
      <trkpt lat="46.82747" lon="-0.93162">
        <ele>135</ele>
        <time>2023-11-30T00:01:20Z</time>
      </trkpt>
      <trkpt lat="46.82761" lon="-0.93621">
        <ele>127</ele>
        <time>2023-11-30T00:02:15Z</time>
      </trkpt>
      <trkpt lat="46.82767" lon="-0.93789">
        <ele>123</ele>
        <time>2023-11-30T00:02:36Z</time>
      </trkpt>
      <trkpt lat="46.82781" lon="-0.94124">
        <ele>129</ele>
        <time>2023-11-30T00:03:17Z</time>
      </trkpt>
      <trkpt lat="46.82785" lon="-0.94183">
        <ele>130</ele>
        <time>2023-11-30T00:03:24Z</time>
      </trkpt>
      <trkpt lat="46.82798" lon="-0.94229">
        <ele>130</ele>
        <time>2023-11-30T00:03:30Z</time>
      </trkpt>
      <trkpt lat="46.82807" lon="-0.94247">
        <ele>129</ele>
        <time>2023-11-30T00:03:33Z</time>
      </trkpt>
      <trkpt lat="46.82832" lon="-0.94286">
        <ele>129</ele>
        <time>2023-11-30T00:03:39Z</time>
      </trkpt>
      <trkpt lat="46.82848" lon="-0.94306">
        <ele>129</ele>
        <time>2023-11-30T00:03:43Z</time>
      </trkpt>
      <trkpt lat="46.82904" lon="-0.94362">
        <ele>129</ele>
        <time>2023-11-30T00:03:55Z</time>
      </trkpt>
      <trkpt lat="46.82925" lon="-0.94396">
        <ele>130</ele>
        <time>2023-11-30T00:04:01Z</time>
      </trkpt>
      <trkpt lat="46.82937" lon="-0.94438">
        <ele>129</ele>
        <time>2023-11-30T00:04:06Z</time>
      </trkpt>
      <trkpt lat="46.82936" lon="-0.94493">
        <ele>129</ele>
        <time>2023-11-30T00:04:13Z</time>
      </trkpt>
      <trkpt lat="46.82915" lon="-0.94713">
        <ele>129</ele>
        <time>2023-11-30T00:04:40Z</time>
      </trkpt>
      <trkpt lat="46.82907" lon="-0.9478">
        <ele>128</ele>
        <time>2023-11-30T00:04:48Z</time>
      </trkpt>
      <trkpt lat="46.82891" lon="-0.94843">
        <ele>128</ele>
        <time>2023-11-30T00:04:56Z</time>
      </trkpt>
      <trkpt lat="46.82839" lon="-0.9497">
        <ele>128</ele>
        <time>2023-11-30T00:05:14Z</time>
      </trkpt>
      <trkpt lat="46.82776" lon="-0.9516">
        <ele>128</ele>
        <time>2023-11-30T00:05:40Z</time>
      </trkpt>
      <trkpt lat="46.82753" lon="-0.95207">
        <ele>128</ele>
        <time>2023-11-30T00:05:47Z</time>
      </trkpt>
      <trkpt lat="46.82709" lon="-0.9528">
        <ele>127</ele>
        <time>2023-11-30T00:05:59Z</time>
      </trkpt>
      <trkpt lat="46.82685" lon="-0.95359">
        <ele>127</ele>
        <time>2023-11-30T00:06:10Z</time>
      </trkpt>
      <trkpt lat="46.82653" lon="-0.95445">
        <ele>126</ele>
        <time>2023-11-30T00:06:21Z</time>
      </trkpt>
      <trkpt lat="46.82538" lon="-0.95598">
        <ele>124</ele>
        <time>2023-11-30T00:06:49Z</time>
      </trkpt>
      <trkpt lat="46.82526" lon="-0.95626">
        <ele>124</ele>
        <time>2023-11-30T00:06:53Z</time>
      </trkpt>
      <trkpt lat="46.82516" lon="-0.95714">
        <ele>124</ele>
        <time>2023-11-30T00:07:04Z</time>
      </trkpt>
      <trkpt lat="46.82493" lon="-0.95899">
        <ele>124</ele>
        <time>2023-11-30T00:07:27Z</time>
      </trkpt>
      <trkpt lat="46.82458" lon="-0.96067">
        <ele>121</ele>
        <time>2023-11-30T00:07:48Z</time>
      </trkpt>
      <trkpt lat="46.82466" lon="-0.96185">
        <ele>121</ele>
        <time>2023-11-30T00:08:03Z</time>
      </trkpt>
      <trkpt lat="46.82442" lon="-0.96336">
        <ele>125</ele>
        <time>2023-11-30T00:08:22Z</time>
      </trkpt>
      <trkpt lat="46.8241" lon="-0.96613">
        <ele>126</ele>
        <time>2023-11-30T00:08:56Z</time>
      </trkpt>
      <trkpt lat="46.82403" lon="-0.96685">
        <ele>125</ele>
        <time>2023-11-30T00:09:05Z</time>
      </trkpt>
      <trkpt lat="46.82406" lon="-0.9676">
        <ele>125</ele>
        <time>2023-11-30T00:09:14Z</time>
      </trkpt>
      <trkpt lat="46.824" lon="-0.96899">
        <ele>124</ele>
        <time>2023-11-30T00:09:31Z</time>
      </trkpt>
      <trkpt lat="46.82412" lon="-0.97087">
        <ele>127</ele>
        <time>2023-11-30T00:09:54Z</time>
      </trkpt>
      <trkpt lat="46.82424" lon="-0.97203">
        <ele>127</ele>
        <time>2023-11-30T00:10:08Z</time>
      </trkpt>
      <trkpt lat="46.82484" lon="-0.97403">
        <ele>121</ele>
        <time>2023-11-30T00:10:35Z</time>
      </trkpt>
      <trkpt lat="46.82491" lon="-0.97452">
        <ele>120</ele>
        <time>2023-11-30T00:10:41Z</time>
      </trkpt>
      <trkpt lat="46.82491" lon="-0.97483">
        <ele>119</ele>
        <time>2023-11-30T00:10:44Z</time>
      </trkpt>
      <trkpt lat="46.82485" lon="-0.97521">
        <ele>118</ele>
        <time>2023-11-30T00:10:49Z</time>
      </trkpt>
      <trkpt lat="46.82455" lon="-0.97604">
        <ele>118</ele>
        <time>2023-11-30T00:11:01Z</time>
      </trkpt>
      <trkpt lat="46.82452" lon="-0.97621">
        <ele>118</ele>
        <time>2023-11-30T00:11:03Z</time>
      </trkpt>
      <trkpt lat="46.82454" lon="-0.97642">
        <ele>117</ele>
        <time>2023-11-30T00:11:05Z</time>
      </trkpt>
      <trkpt lat="46.82471" lon="-0.97708">
        <ele>116</ele>
        <time>2023-11-30T00:11:14Z</time>
      </trkpt>
      <trkpt lat="46.82507" lon="-0.9793">
        <ele>116</ele>
        <time>2023-11-30T00:11:42Z</time>
      </trkpt>
      <trkpt lat="46.82508" lon="-0.98018">
        <ele>116</ele>
        <time>2023-11-30T00:11:52Z</time>
      </trkpt>
      <trkpt lat="46.82503" lon="-0.98052">
        <ele>115</ele>
        <time>2023-11-30T00:11:57Z</time>
      </trkpt>
      <trkpt lat="46.82488" lon="-0.98134">
        <ele>112</ele>
        <time>2023-11-30T00:12:07Z</time>
      </trkpt>
      <trkpt lat="46.8248" lon="-0.98164">
        <ele>112</ele>
        <time>2023-11-30T00:12:11Z</time>
      </trkpt>
      <trkpt lat="46.8241" lon="-0.98342">
        <ele>111</ele>
        <time>2023-11-30T00:12:36Z</time>
      </trkpt>
      <trkpt lat="46.82403" lon="-0.98391">
        <ele>111</ele>
        <time>2023-11-30T00:12:42Z</time>
      </trkpt>
      <trkpt lat="46.82405" lon="-0.98411">
        <ele>112</ele>
        <time>2023-11-30T00:12:44Z</time>
      </trkpt>
      <trkpt lat="46.82393" lon="-0.98441">
        <ele>111</ele>
        <time>2023-11-30T00:12:49Z</time>
      </trkpt>
      <trkpt lat="46.82372" lon="-0.98508">
        <ele>111</ele>
        <time>2023-11-30T00:12:58Z</time>
      </trkpt>
      <trkpt lat="46.82364" lon="-0.98526">
        <ele>111</ele>
        <time>2023-11-30T00:13:00Z</time>
      </trkpt>
      <trkpt lat="46.82352" lon="-0.98541">
        <ele>111</ele>
        <time>2023-11-30T00:13:03Z</time>
      </trkpt>
      <trkpt lat="46.8235" lon="-0.98553">
        <ele>111</ele>
        <time>2023-11-30T00:13:05Z</time>
      </trkpt>
      <trkpt lat="46.82352" lon="-0.98566">
        <ele>112</ele>
        <time>2023-11-30T00:13:06Z</time>
      </trkpt>
      <trkpt lat="46.82372" lon="-0.98618">
        <ele>114</ele>
        <time>2023-11-30T00:13:13Z</time>
      </trkpt>
      <trkpt lat="46.82393" lon="-0.9869">
        <ele>115</ele>
        <time>2023-11-30T00:13:23Z</time>
      </trkpt>
      <trkpt lat="46.82398" lon="-0.98715">
        <ele>116</ele>
        <time>2023-11-30T00:13:26Z</time>
      </trkpt>
      <trkpt lat="46.82397" lon="-0.98744">
        <ele>116</ele>
        <time>2023-11-30T00:13:30Z</time>
      </trkpt>
      <trkpt lat="46.82389" lon="-0.98788">
        <ele>117</ele>
        <time>2023-11-30T00:13:35Z</time>
      </trkpt>
      <trkpt lat="46.82372" lon="-0.9885">
        <ele>117</ele>
        <time>2023-11-30T00:13:43Z</time>
      </trkpt>
      <trkpt lat="46.82286" lon="-0.99104">
        <ele>118</ele>
        <time>2023-11-30T00:14:18Z</time>
      </trkpt>
      <trkpt lat="46.82247" lon="-0.99224">
        <ele>118</ele>
        <time>2023-11-30T00:14:34Z</time>
      </trkpt>
      <trkpt lat="46.82233" lon="-0.99254">
        <ele>117</ele>
        <time>2023-11-30T00:14:39Z</time>
      </trkpt>
      <trkpt lat="46.82248" lon="-0.99323">
        <ele>114</ele>
        <time>2023-11-30T00:14:47Z</time>
      </trkpt>
      <trkpt lat="46.82255" lon="-0.99372">
        <ele>113</ele>
        <time>2023-11-30T00:14:53Z</time>
      </trkpt>
      <trkpt lat="46.82256" lon="-0.99402">
        <ele>112</ele>
        <time>2023-11-30T00:14:57Z</time>
      </trkpt>
      <trkpt lat="46.82255" lon="-0.99428">
        <ele>111</ele>
        <time>2023-11-30T00:15:00Z</time>
      </trkpt>
      <trkpt lat="46.82252" lon="-0.99449">
        <ele>110</ele>
        <time>2023-11-30T00:15:03Z</time>
      </trkpt>
      <trkpt lat="46.82303" lon="-0.99478">
        <ele>109</ele>
        <time>2023-11-30T00:15:13Z</time>
      </trkpt>
      <trkpt lat="46.82311" lon="-0.99486">
        <ele>109</ele>
        <time>2023-11-30T00:15:14Z</time>
      </trkpt>
      <trkpt lat="46.82317" lon="-0.99495">
        <ele>109</ele>
        <time>2023-11-30T00:15:16Z</time>
      </trkpt>
      <trkpt lat="46.82339" lon="-0.99555">
        <ele>106</ele>
        <time>2023-11-30T00:15:24Z</time>
      </trkpt>
      <trkpt lat="46.82347" lon="-0.99571">
        <ele>104</ele>
        <time>2023-11-30T00:15:27Z</time>
      </trkpt>
      <trkpt lat="46.82358" lon="-0.99589">
        <ele>103</ele>
        <time>2023-11-30T00:15:29Z</time>
      </trkpt>
      <trkpt lat="46.82369" lon="-0.99601">
        <ele>101</ele>
        <time>2023-11-30T00:15:32Z</time>
      </trkpt>
      <trkpt lat="46.82392" lon="-0.99616">
        <ele>99</ele>
        <time>2023-11-30T00:15:36Z</time>
      </trkpt>
      <trkpt lat="46.82422" lon="-0.99623">
        <ele>98</ele>
        <time>2023-11-30T00:15:42Z</time>
      </trkpt>
      <trkpt lat="46.82551" lon="-0.99642">
        <ele>92</ele>
        <time>2023-11-30T00:16:05Z</time>
      </trkpt>
      <trkpt lat="46.82566" lon="-0.99646">
        <ele>92</ele>
        <time>2023-11-30T00:16:08Z</time>
      </trkpt>
      <trkpt lat="46.8258" lon="-0.99653">
        <ele>91</ele>
        <time>2023-11-30T00:16:10Z</time>
      </trkpt>
      <trkpt lat="46.826" lon="-0.99666">
        <ele>92</ele>
        <time>2023-11-30T00:16:14Z</time>
      </trkpt>
      <trkpt lat="46.82619" lon="-0.9969">
        <ele>94</ele>
        <time>2023-11-30T00:16:19Z</time>
      </trkpt>
      <trkpt lat="46.82637" lon="-0.99724">
        <ele>95</ele>
        <time>2023-11-30T00:16:24Z</time>
      </trkpt>
      <trkpt lat="46.82675" lon="-0.99834">
        <ele>99</ele>
        <time>2023-11-30T00:16:39Z</time>
      </trkpt>
      <trkpt lat="46.82745" lon="-1.00045">
        <ele>106</ele>
        <time>2023-11-30T00:17:07Z</time>
      </trkpt>
      <trkpt lat="46.82784" lon="-1.00163">
        <ele>109</ele>
        <time>2023-11-30T00:17:23Z</time>
      </trkpt>
      <trkpt lat="46.82796" lon="-1.00194">
        <ele>109</ele>
        <time>2023-11-30T00:17:28Z</time>
      </trkpt>
      <trkpt lat="46.82826" lon="-1.00254">
        <ele>110</ele>
        <time>2023-11-30T00:17:37Z</time>
      </trkpt>
      <trkpt lat="46.82843" lon="-1.00277">
        <ele>111</ele>
        <time>2023-11-30T00:17:41Z</time>
      </trkpt>
      <trkpt lat="46.8288" lon="-1.00315">
        <ele>112</ele>
        <time>2023-11-30T00:17:49Z</time>
      </trkpt>
      <trkpt lat="46.82896" lon="-1.00326">
        <ele>112</ele>
        <time>2023-11-30T00:17:52Z</time>
      </trkpt>
      <trkpt lat="46.82918" lon="-1.00337">
        <ele>112</ele>
        <time>2023-11-30T00:17:56Z</time>
      </trkpt>
      <trkpt lat="46.82942" lon="-1.00346">
        <ele>113</ele>
        <time>2023-11-30T00:18:01Z</time>
      </trkpt>
      <trkpt lat="46.82971" lon="-1.00352">
        <ele>114</ele>
        <time>2023-11-30T00:18:06Z</time>
      </trkpt>
      <trkpt lat="46.83152" lon="-1.00367">
        <ele>121</ele>
        <time>2023-11-30T00:18:38Z</time>
      </trkpt>
      <trkpt lat="46.83326" lon="-1.00377">
        <ele>126</ele>
        <time>2023-11-30T00:19:09Z</time>
      </trkpt>
      <trkpt lat="46.83506" lon="-1.00398">
        <ele>127</ele>
        <time>2023-11-30T00:19:41Z</time>
      </trkpt>
      <trkpt lat="46.83613" lon="-1.00403">
        <ele>129</ele>
        <time>2023-11-30T00:20:00Z</time>
      </trkpt>
      <trkpt lat="46.83677" lon="-1.00402">
        <ele>130</ele>
        <time>2023-11-30T00:20:12Z</time>
      </trkpt>
      <trkpt lat="46.8384" lon="-1.00414">
        <ele>127</ele>
        <time>2023-11-30T00:20:41Z</time>
      </trkpt>
      <trkpt lat="46.83855" lon="-1.00414">
        <ele>126</ele>
        <time>2023-11-30T00:20:43Z</time>
      </trkpt>
      <trkpt lat="46.83864" lon="-1.00409">
        <ele>126</ele>
        <time>2023-11-30T00:20:45Z</time>
      </trkpt>
      <trkpt lat="46.83868" lon="-1.0041">
        <ele>126</ele>
        <time>2023-11-30T00:20:46Z</time>
      </trkpt>
      <trkpt lat="46.83871" lon="-1.00413">
        <ele>126</ele>
        <time>2023-11-30T00:20:46Z</time>
      </trkpt>
      <trkpt lat="46.83871" lon="-1.00422">
        <ele>126</ele>
        <time>2023-11-30T00:20:47Z</time>
      </trkpt>
      <trkpt lat="46.84446" lon="-1.00468">
        <ele>113</ele>
        <time>2023-11-30T00:22:30Z</time>
      </trkpt>
      <trkpt lat="46.84473" lon="-1.0046">
        <ele>112</ele>
        <time>2023-11-30T00:22:35Z</time>
      </trkpt>
      <trkpt lat="46.84477" lon="-1.00454">
        <ele>112</ele>
        <time>2023-11-30T00:22:36Z</time>
      </trkpt>
      <trkpt lat="46.84486" lon="-1.0045">
        <ele>111</ele>
        <time>2023-11-30T00:22:38Z</time>
      </trkpt>
      <trkpt lat="46.84496" lon="-1.00454">
        <ele>111</ele>
        <time>2023-11-30T00:22:39Z</time>
      </trkpt>
      <trkpt lat="46.84501" lon="-1.00463">
        <ele>111</ele>
        <time>2023-11-30T00:22:41Z</time>
      </trkpt>
      <trkpt lat="46.84532" lon="-1.00471">
        <ele>111</ele>
        <time>2023-11-30T00:22:46Z</time>
      </trkpt>
      <trkpt lat="46.84571" lon="-1.00469">
        <ele>111</ele>
        <time>2023-11-30T00:22:53Z</time>
      </trkpt>
      <trkpt lat="46.84625" lon="-1.00458">
        <ele>112</ele>
        <time>2023-11-30T00:23:03Z</time>
      </trkpt>
      <trkpt lat="46.84738" lon="-1.0042">
        <ele>116</ele>
        <time>2023-11-30T00:23:24Z</time>
      </trkpt>
      <trkpt lat="46.8476" lon="-1.00409">
        <ele>116</ele>
        <time>2023-11-30T00:23:28Z</time>
      </trkpt>
      <trkpt lat="46.8476" lon="-1.00401">
        <ele>116</ele>
        <time>2023-11-30T00:23:29Z</time>
      </trkpt>
      <trkpt lat="46.84765" lon="-1.00394">
        <ele>116</ele>
        <time>2023-11-30T00:23:30Z</time>
      </trkpt>
      <trkpt lat="46.84772" lon="-1.00397">
        <ele>116</ele>
        <time>2023-11-30T00:23:31Z</time>
      </trkpt>
      <trkpt lat="46.84774" lon="-1.00404">
        <ele>116</ele>
        <time>2023-11-30T00:23:32Z</time>
      </trkpt>
      <trkpt lat="46.84873" lon="-1.0038">
        <ele>114</ele>
        <time>2023-11-30T00:23:50Z</time>
      </trkpt>
      <trkpt lat="46.84918" lon="-1.00379">
        <ele>114</ele>
        <time>2023-11-30T00:23:58Z</time>
      </trkpt>
      <trkpt lat="46.84956" lon="-1.00381">
        <ele>113</ele>
        <time>2023-11-30T00:24:05Z</time>
      </trkpt>
      <trkpt lat="46.84987" lon="-1.00387">
        <ele>113</ele>
        <time>2023-11-30T00:24:10Z</time>
      </trkpt>
      <trkpt lat="46.85025" lon="-1.00397">
        <ele>112</ele>
        <time>2023-11-30T00:24:17Z</time>
      </trkpt>
      <trkpt lat="46.85054" lon="-1.0041">
        <ele>111</ele>
        <time>2023-11-30T00:24:23Z</time>
      </trkpt>
      <trkpt lat="46.85102" lon="-1.00439">
        <ele>110</ele>
        <time>2023-11-30T00:24:32Z</time>
      </trkpt>
      <trkpt lat="46.85261" lon="-1.00556">
        <ele>110</ele>
        <time>2023-11-30T00:25:04Z</time>
      </trkpt>
      <trkpt lat="46.85285" lon="-1.00572">
        <ele>110</ele>
        <time>2023-11-30T00:25:08Z</time>
      </trkpt>
      <trkpt lat="46.8534" lon="-1.00587">
        <ele>109</ele>
        <time>2023-11-30T00:25:18Z</time>
      </trkpt>
      <trkpt lat="46.8546" lon="-1.00641">
        <ele>108</ele>
        <time>2023-11-30T00:25:41Z</time>
      </trkpt>
      <trkpt lat="46.85483" lon="-1.00655">
        <ele>108</ele>
        <time>2023-11-30T00:25:45Z</time>
      </trkpt>
      <trkpt lat="46.85509" lon="-1.00674">
        <ele>108</ele>
        <time>2023-11-30T00:25:50Z</time>
      </trkpt>
      <trkpt lat="46.85539" lon="-1.00693">
        <ele>108</ele>
        <time>2023-11-30T00:25:56Z</time>
      </trkpt>
      <trkpt lat="46.85562" lon="-1.00711">
        <ele>108</ele>
        <time>2023-11-30T00:26:01Z</time>
      </trkpt>
      <trkpt lat="46.8569" lon="-1.00829">
        <ele>112</ele>
        <time>2023-11-30T00:26:28Z</time>
      </trkpt>
      <trkpt lat="46.85838" lon="-1.00917">
        <ele>113</ele>
        <time>2023-11-30T00:26:56Z</time>
      </trkpt>
      <trkpt lat="46.8584" lon="-1.00911">
        <ele>113</ele>
        <time>2023-11-30T00:26:57Z</time>
      </trkpt>
      <trkpt lat="46.85848" lon="-1.00905">
        <ele>113</ele>
        <time>2023-11-30T00:26:58Z</time>
      </trkpt>
      <trkpt lat="46.85852" lon="-1.00904">
        <ele>113</ele>
        <time>2023-11-30T00:26:59Z</time>
      </trkpt>
      <trkpt lat="46.85859" lon="-1.00908">
        <ele>113</ele>
        <time>2023-11-30T00:27:00Z</time>
      </trkpt>
      <trkpt lat="46.85864" lon="-1.00916">
        <ele>113</ele>
        <time>2023-11-30T00:27:02Z</time>
      </trkpt>
      <trkpt lat="46.85864" lon="-1.00927">
        <ele>113</ele>
        <time>2023-11-30T00:27:03Z</time>
      </trkpt>
      <trkpt lat="46.85869" lon="-1.00937">
        <ele>113</ele>
        <time>2023-11-30T00:27:05Z</time>
      </trkpt>
      <trkpt lat="46.85879" lon="-1.00946">
        <ele>113</ele>
        <time>2023-11-30T00:27:07Z</time>
      </trkpt>
      <trkpt lat="46.85951" lon="-1.00979">
        <ele>113</ele>
        <time>2023-11-30T00:27:20Z</time>
      </trkpt>
      <trkpt lat="46.85956" lon="-1.00964">
        <ele>113</ele>
        <time>2023-11-30T00:27:22Z</time>
      </trkpt>
      <trkpt lat="46.85979" lon="-1.00924">
        <ele>112</ele>
        <time>2023-11-30T00:27:29Z</time>
      </trkpt>
      <trkpt lat="46.85999" lon="-1.00892">
        <ele>112</ele>
        <time>2023-11-30T00:27:34Z</time>
      </trkpt>
      <trkpt lat="46.86071" lon="-1.00794">
        <ele>114</ele>
        <time>2023-11-30T00:27:51Z</time>
      </trkpt>
      <trkpt lat="46.86095" lon="-1.00768">
        <ele>115</ele>
        <time>2023-11-30T00:27:57Z</time>
      </trkpt>
      <trkpt lat="46.86141" lon="-1.00728">
        <ele>116</ele>
        <time>2023-11-30T00:28:06Z</time>
      </trkpt>
      <trkpt lat="46.86183" lon="-1.00705">
        <ele>116</ele>
        <time>2023-11-30T00:28:14Z</time>
      </trkpt>
      <trkpt lat="46.86271" lon="-1.00663">
        <ele>118</ele>
        <time>2023-11-30T00:28:31Z</time>
      </trkpt>
      <trkpt lat="46.86324" lon="-1.00626">
        <ele>119</ele>
        <time>2023-11-30T00:28:41Z</time>
      </trkpt>
      <trkpt lat="46.86378" lon="-1.00568">
        <ele>120</ele>
        <time>2023-11-30T00:28:53Z</time>
      </trkpt>
    </trkseg>
  </trk>
</gpx>